SWR123 RKSI-LSZH

Flight info

Callsign SWR123
Flight time 12h 44m
Altitude 21700
Route NOPIK2Y NOPIK Y697 AGAVO/K0774S0660 A591 IKEKA W4 FZ/K0896S1100 W4 HCH W200 DOVIV W55 PAMRU W34 VYK B215 OMKAK/K0898S1160 B215 LEBOM W104 VEXEB W47 IDSOT W48 DKO W66 NUKTI B215 FKG A368 TCH/K0898S1220 A368 SARIN/K0896F400 N161 GASBI/N0487F400 N161 LEYLA N644 ADEKI DCT BADIR DCT LAGAS DCT NOLGA UN61 TBN UL851 OLUPO UM10 GOKPA UL746 ODERO DCT LUGEB DCT NERDI/N0487F430 DCT MOPUG DCT GOTAR DCT ERKIR DCT KPT L856 NEGRA
Aircraft A359/H-SDE2E3GHIJ3J4J5LM1ORWXY/LB1D1

Departure

Time 2026-05-04 20:12
Airport Incheon International Airport (RKSI)

Arrival

Time 2026-05-05 08:56
Airport Zürich Airport (LSZH)
Time Latitude Longitude Altitude Speed Heading
2026-05-04 19:47 37.44533 126.44886 39 ft 0 kts 352°
2026-05-04 20:01 37.44530 126.44886 37 ft 3 kts 351°
2026-05-04 20:01 37.44504 126.44891 37 ft 4 kts 357°
2026-05-04 20:01 37.44478 126.44890 38 ft 4 kts
2026-05-04 20:02 37.44452 126.44889 37 ft 4 kts 360°
2026-05-04 20:02 37.44431 126.44888 38 ft 4 kts
2026-05-04 20:02 37.44407 126.44879 38 ft 4 kts 26°
2026-05-04 20:02 37.44383 126.44863 37 ft 4 kts 27°
2026-05-04 20:03 37.44369 126.44855 37 ft 1 kts 20°
2026-05-04 20:03 37.44367 126.44854 37 ft 0 kts 20°
2026-05-04 20:05 37.44368 126.44855 37 ft 1 kts 20°
2026-05-04 20:05 37.44384 126.44860 37 ft 4 kts
2026-05-04 20:06 37.44407 126.44838 37 ft 3 kts 295°
2026-05-04 20:06 37.44408 126.44795 39 ft 7 kts 274°
2026-05-04 20:06 37.44421 126.44716 39 ft 11 kts 288°
2026-05-04 20:06 37.44462 126.44636 39 ft 11 kts 317°
2026-05-04 20:07 37.44531 126.44581 39 ft 12 kts 315°
2026-05-04 20:07 37.44529 126.44488 39 ft 11 kts 244°
2026-05-04 20:07 37.44483 126.44401 39 ft 12 kts 235°
2026-05-04 20:07 37.44430 126.44309 39 ft 13 kts 234°
2026-05-04 20:08 37.44416 126.44285 39 ft 0 kts 234°
2026-05-04 20:10 37.44400 126.44255 39 ft 9 kts 234°
2026-05-04 20:10 37.44364 126.44187 39 ft 9 kts 247°
2026-05-04 20:11 37.44385 126.44138 39 ft 6 kts 320°
2026-05-04 20:11 37.44431 126.44094 39 ft 15 kts 323°
2026-05-04 20:11 37.44677 126.43875 39 ft 73 kts 325°
2026-05-04 20:11 37.45247 126.43370 39 ft 126 kts 324°
2026-05-04 20:12 37.46096 126.42614 51 ft 170 kts 324°
2026-05-04 20:12 37.46984 126.41797 775 ft 154 kts 321°
2026-05-04 20:12 37.47842 126.40887 1152 ft 167 kts 311°
2026-05-04 20:12 37.48583 126.39778 1755 ft 167 kts 304°
2026-05-04 20:13 37.49327 126.38567 2041 ft 184 kts 304°
2026-05-04 20:13 37.50114 126.37176 2225 ft 206 kts 296°
2026-05-04 20:13 37.50481 126.35364 2440 ft 225 kts 272°
2026-05-04 20:13 37.50524 126.33326 2857 ft 239 kts 269°
2026-05-04 20:14 37.50546 126.31208 3451 ft 245 kts 270°
2026-05-04 20:14 37.50581 126.29034 4056 ft 251 kts 270°
2026-05-04 20:14 37.50627 126.26819 4689 ft 255 kts 270°
2026-05-04 20:14 37.50666 126.24574 5334 ft 258 kts 270°
2026-05-04 20:15 37.50689 126.22304 6018 ft 261 kts 269°
2026-05-04 20:15 37.50705 126.20007 6712 ft 263 kts 269°
2026-05-04 20:15 37.50724 126.17686 7376 ft 266 kts 270°
2026-05-04 20:15 37.50747 126.15342 8054 ft 270 kts 270°
2026-05-04 20:16 37.50769 126.12961 8752 ft 273 kts 270°
2026-05-04 20:16 37.50788 126.10589 9447 ft 277 kts 270°
2026-05-04 20:16 37.50807 126.08148 10141 ft 280 kts 270°
2026-05-04 20:16 37.50827 126.05626 10476 ft 297 kts 270°
2026-05-04 20:17 37.50850 126.02947 10739 ft 315 kts 270°
2026-05-04 20:17 37.50874 126.00102 10998 ft 333 kts 270°
2026-05-04 20:17 37.50899 125.97126 11328 ft 346 kts 270°
2026-05-04 20:17 37.50924 125.94067 11866 ft 352 kts 270°
2026-05-04 20:18 37.50950 125.90961 12469 ft 356 kts 270°
2026-05-04 20:18 37.50976 125.87818 13070 ft 361 kts 270°
2026-05-04 20:18 37.50999 125.84649 13668 ft 365 kts 270°
2026-05-04 20:18 37.51015 125.81432 14231 ft 368 kts 270°
2026-05-04 20:19 37.51036 125.78201 14785 ft 372 kts 270°
2026-05-04 20:19 37.51059 125.74967 15352 ft 375 kts 270°
2026-05-04 20:19 37.51082 125.71676 15921 ft 378 kts 270°
2026-05-04 20:19 37.51103 125.68356 16472 ft 381 kts 270°
2026-05-04 20:20 37.51123 125.64999 17004 ft 385 kts 270°
2026-05-04 20:20 37.51145 125.61606 17539 ft 389 kts 270°
2026-05-04 20:20 37.51170 125.58181 18075 ft 393 kts 270°
2026-05-04 20:20 37.51186 125.54725 18591 ft 396 kts 270°
2026-05-04 20:21 37.51198 125.51238 19101 ft 399 kts 270°
2026-05-04 20:21 37.51210 125.47741 19651 ft 401 kts 270°
2026-05-04 20:21 37.51234 125.40662 20763 ft 406 kts 270°
2026-05-04 20:22 37.51245 125.37101 21305 ft 408 kts 270°
2026-05-04 20:22 37.51256 125.33508 21717 ft 411 kts 270°
2026-05-04 20:22 37.51266 125.29944 21803 ft 402 kts 270°
2026-05-04 20:22 37.51274 125.26514 21815 ft 393 kts 270°
2026-05-04 20:23 37.51282 125.23036 21806 ft 392 kts 270°
2026-05-04 20:23 37.51288 125.19643 21806 ft 392 kts 270°
2026-05-04 20:23 37.51294 125.16208 21801 ft 392 kts 270°
2026-05-04 20:23 37.51298 125.12768 21797 ft 392 kts 270°
2026-05-04 20:24 37.51301 125.09333 21797 ft 392 kts 270°
2026-05-04 20:24 37.51304 125.05889 21800 ft 393 kts 270°
2026-05-04 20:24 37.51305 125.02457 21801 ft 393 kts 270°
2026-05-04 20:24 37.51306 124.99015 21794 ft 393 kts 270°
2026-05-04 20:25 37.51305 124.95571 21795 ft 393 kts 270°
2026-05-04 20:25 37.51303 124.92131 21799 ft 393 kts 270°
2026-05-04 20:25 37.51301 124.88682 21797 ft 393 kts 270°
2026-05-04 20:25 37.51297 124.85243 21791 ft 393 kts 270°
2026-05-04 20:26 37.51293 124.81794 21797 ft 393 kts 270°
2026-05-04 20:26 37.51287 124.78349 21798 ft 394 kts 270°
2026-05-04 20:26 37.51281 124.74900 21794 ft 394 kts 270°
2026-05-04 20:26 37.51273 124.71506 21793 ft 394 kts 270°
2026-05-04 20:27 37.51264 124.68039 21792 ft 394 kts 270°
2026-05-04 20:27 37.51255 124.64592 21796 ft 394 kts 270°
2026-05-04 20:27 37.51244 124.61138 21791 ft 394 kts 270°
2026-05-04 20:27 37.51232 124.57686 21784 ft 394 kts 270°
2026-05-04 20:28 37.51220 124.54231 21792 ft 394 kts 270°
2026-05-04 20:28 37.51206 124.50780 21782 ft 394 kts 270°
2026-05-04 20:28 37.51192 124.47328 21784 ft 394 kts 270°
2026-05-04 20:28 37.51176 124.43922 21785 ft 395 kts 270°
2026-05-04 20:29 37.51159 124.40469 21784 ft 395 kts 270°
2026-05-04 20:29 37.51142 124.37007 21786 ft 395 kts 270°
2026-05-04 20:29 37.51123 124.33551 21780 ft 395 kts 270°
2026-05-04 20:29 37.51103 124.30100 21785 ft 395 kts 270°
2026-05-04 20:30 37.51083 124.26642 21781 ft 395 kts 270°
2026-05-04 20:30 37.51061 124.23187 21782 ft 395 kts 270°
2026-05-04 20:30 37.51039 124.19735 21784 ft 395 kts 270°
2026-05-04 20:30 37.51015 124.16277 21775 ft 395 kts 270°
2026-05-04 20:31 37.50991 124.12814 21773 ft 395 kts 270°
2026-05-04 20:31 37.50965 124.09356 21781 ft 395 kts 270°
2026-05-04 20:31 37.50938 124.05900 21779 ft 395 kts 270°
2026-05-04 20:31 37.50910 124.02435 21772 ft 395 kts 270°
2026-05-04 20:32 37.50881 123.98981 21779 ft 395 kts 270°
2026-05-04 20:32 37.50851 123.95522 21779 ft 395 kts 270°
2026-05-04 20:32 37.50831 123.93237 21773 ft 395 kts 270°
2026-05-04 20:32 37.50800 123.89783 21773 ft 395 kts 270°
2026-05-04 20:33 37.50767 123.86312 21778 ft 395 kts 270°
2026-05-04 20:33 37.50723 123.81726 21771 ft 396 kts 269°
2026-05-04 20:33 37.50688 123.78263 21766 ft 396 kts 269°
2026-05-04 20:33 37.50652 123.74795 21770 ft 396 kts 269°
2026-05-04 20:34 37.50615 123.71339 21764 ft 396 kts 269°
2026-05-04 20:34 37.50590 123.68996 21766 ft 396 kts 269°
2026-05-04 20:34 37.50551 123.65566 21769 ft 396 kts 269°
2026-05-04 20:34 37.50512 123.62102 21763 ft 396 kts 269°
2026-05-04 20:35 37.50472 123.58636 21761 ft 396 kts 269°
2026-05-04 20:35 37.50430 123.55162 21764 ft 396 kts 269°
2026-05-04 20:35 37.50387 123.51693 21763 ft 397 kts 269°
2026-05-04 20:35 37.50343 123.48224 21760 ft 397 kts 269°
2026-05-04 20:36 37.50299 123.44747 21761 ft 397 kts 269°
2026-05-04 20:36 37.50253 123.41272 21755 ft 397 kts 269°
2026-05-04 20:36 37.50205 123.37800 21761 ft 396 kts 269°
2026-05-04 20:36 37.50158 123.34331 21757 ft 396 kts 269°
2026-05-04 20:37 37.50109 123.30861 21752 ft 396 kts 269°
2026-05-04 20:37 37.50060 123.27393 21760 ft 396 kts 269°
2026-05-04 20:37 37.50009 123.23923 21753 ft 396 kts 269°
2026-05-04 20:37 37.49957 123.20450 21758 ft 396 kts 269°
2026-05-04 20:38 37.49905 123.17026 21752 ft 397 kts 269°
2026-05-04 20:38 37.49851 123.13549 21752 ft 397 kts 269°
2026-05-04 20:38 37.49796 123.10078 21756 ft 397 kts 269°
2026-05-04 20:38 37.49739 123.06606 21748 ft 397 kts 269°
2026-05-04 20:39 37.49683 123.03131 21744 ft 397 kts 269°
2026-05-04 20:39 37.49625 122.99655 21745 ft 397 kts 269°
2026-05-04 20:39 37.49566 122.96176 21745 ft 397 kts 269°
2026-05-04 20:39 37.49506 122.92693 21747 ft 397 kts 269°
2026-05-04 20:40 37.49445 122.89214 21747 ft 397 kts 269°
2026-05-04 20:40 37.49383 122.85740 21740 ft 397 kts 269°
2026-05-04 20:40 37.49319 122.82264 21738 ft 397 kts 269°
2026-05-04 20:40 37.49256 122.78835 21741 ft 397 kts 269°
2026-05-04 20:41 37.49190 122.75358 21733 ft 397 kts 269°
2026-05-04 20:41 37.49124 122.71875 21739 ft 397 kts 269°
2026-05-04 20:41 37.49057 122.68393 21738 ft 397 kts 269°
2026-05-04 20:41 37.48988 122.64914 21735 ft 397 kts 269°
2026-05-04 20:42 37.48920 122.61438 21728 ft 397 kts 269°
2026-05-04 20:42 37.48850 122.57964 21734 ft 397 kts 269°
2026-05-04 20:42 37.48779 122.54486 21728 ft 397 kts 269°
2026-05-04 20:42 37.48707 122.51013 21735 ft 397 kts 269°
2026-05-04 20:43 37.48633 122.47531 21736 ft 397 kts 269°
2026-05-04 20:43 37.48559 122.44054 21731 ft 397 kts 269°
2026-05-04 20:43 37.48484 122.40569 21730 ft 397 kts 269°
2026-05-04 20:43 37.48408 122.37138 21729 ft 398 kts 269°
2026-05-04 20:44 37.48331 122.33660 21728 ft 398 kts 269°
2026-05-04 20:44 37.48252 122.30181 21722 ft 398 kts 269°
2026-05-04 20:44 37.48173 122.26702 21728 ft 397 kts 269°
2026-05-04 20:44 37.48092 122.23225 21720 ft 397 kts 269°
2026-05-04 20:45 37.48010 122.19749 21722 ft 397 kts 269°
2026-05-04 20:45 37.47928 122.16269 21726 ft 397 kts 269°
2026-05-04 20:45 37.47844 122.12792 21724 ft 397 kts 269°
2026-05-04 20:45 37.47760 122.09316 21724 ft 397 kts 269°
2026-05-04 20:46 37.47675 122.05835 21718 ft 397 kts 269°
2026-05-04 20:46 37.47589 122.02360 21715 ft 397 kts 269°
2026-05-04 20:46 37.47502 121.98925 21718 ft 397 kts 269°
2026-05-04 20:46 37.47413 121.95451 21716 ft 397 kts 269°
2026-05-04 20:47 37.47324 121.91979 21715 ft 397 kts 269°
2026-05-04 20:47 37.47233 121.88510 21712 ft 397 kts 269°
2026-05-04 20:47 37.47141 121.85042 21717 ft 397 kts 269°
2026-05-04 20:47 37.47049 121.81567 21710 ft 397 kts 268°
2026-05-04 20:48 37.46956 121.78098 21709 ft 397 kts 268°
2026-05-04 20:48 37.46861 121.74628 21708 ft 397 kts 268°
2026-05-04 20:48 37.46766 121.71157 21715 ft 397 kts 268°
2026-05-04 20:48 37.46669 121.67676 21712 ft 397 kts 268°
2026-05-04 20:49 37.46571 121.64207 21708 ft 397 kts 268°
2026-05-04 20:49 37.46472 121.60740 21710 ft 396 kts 268°
2026-05-04 20:49 37.46372 121.57277 21705 ft 396 kts 268°
2026-05-04 20:49 37.46273 121.53860 21709 ft 396 kts 268°
2026-05-04 20:50 37.46172 121.50394 21708 ft 396 kts 268°
2026-05-04 20:50 37.46069 121.46926 21702 ft 396 kts 268°
2026-05-04 20:50 37.45966 121.43464 21705 ft 396 kts 268°
2026-05-04 20:50 37.45861 121.39998 21703 ft 396 kts 268°
2026-05-04 20:51 37.45756 121.36538 21708 ft 396 kts 268°
2026-05-04 20:51 37.45649 121.33072 21702 ft 396 kts 268°
2026-05-04 20:51 37.45542 121.29611 21703 ft 396 kts 268°
2026-05-04 20:51 37.45434 121.26150 21702 ft 396 kts 268°
2026-05-04 20:52 37.45326 121.22691 21749 ft 396 kts 268°
2026-05-04 20:52 37.45406 121.19250 21876 ft 404 kts 277°
2026-05-04 20:52 37.45979 121.15747 22139 ft 413 kts 287°
2026-05-04 20:52 37.46874 121.12296 22619 ft 416 kts 290°
2026-05-04 20:53 37.47903 121.08869 23167 ft 418 kts 292°
2026-05-04 20:53 37.48999 121.05468 23708 ft 420 kts 293°
2026-05-04 20:53 37.50119 121.02065 24168 ft 422 kts 293°
2026-05-04 20:53 37.51242 120.98640 24643 ft 424 kts 293°
2026-05-04 20:54 37.52356 120.95208 25096 ft 426 kts 293°
2026-05-04 20:54 37.53477 120.91724 25550 ft 428 kts 292°
2026-05-04 20:54 37.54590 120.88237 25989 ft 430 kts 292°
2026-05-04 20:54 37.55704 120.84723 26435 ft 433 kts 292°
2026-05-04 20:55 37.56806 120.81234 26864 ft 435 kts 292°
2026-05-04 20:55 37.57926 120.77683 27299 ft 437 kts 292°
2026-05-04 20:55 37.59051 120.74114 27725 ft 439 kts 293°
2026-05-04 20:55 37.60208 120.70537 28158 ft 441 kts 293°
2026-05-04 20:56 37.61388 120.66956 28561 ft 443 kts 294°
2026-05-04 20:56 37.62581 120.63358 28986 ft 445 kts 294°
2026-05-04 20:56 37.63778 120.59745 29372 ft 448 kts 294°
2026-05-04 20:56 37.64993 120.56114 29738 ft 450 kts 295°
2026-05-04 20:57 37.66420 120.52601 30096 ft 452 kts 300°
2026-05-04 20:57 37.67951 120.49126 30409 ft 454 kts 300°
2026-05-04 20:57 37.69518 120.45654 30728 ft 455 kts 301°
2026-05-04 20:57 37.71102 120.42186 31004 ft 458 kts 301°
2026-05-04 20:58 37.72681 120.38742 31289 ft 459 kts 301°
2026-05-04 20:58 37.74305 120.35196 31562 ft 461 kts 301°
2026-05-04 20:58 37.75892 120.31722 31828 ft 463 kts 301°
2026-05-04 20:58 37.77500 120.28190 32082 ft 465 kts 301°
2026-05-04 20:59 37.79114 120.24638 32338 ft 467 kts 301°
2026-05-04 20:59 37.80730 120.21072 32576 ft 468 kts 301°
2026-05-04 20:59 37.82350 120.17492 32893 ft 468 kts 301°
2026-05-04 20:59 37.83961 120.13926 33266 ft 467 kts 301°
2026-05-04 21:00 37.85569 120.10363 33617 ft 466 kts 301°
2026-05-04 21:00 37.87172 120.06809 33940 ft 465 kts 301°
2026-05-04 21:00 37.88777 120.03247 34228 ft 464 kts 301°
2026-05-04 21:00 37.90372 119.99702 34506 ft 463 kts 301°
2026-05-04 21:01 37.91967 119.96155 34761 ft 463 kts 301°
2026-05-04 21:01 37.93558 119.92613 35007 ft 462 kts 301°
2026-05-04 21:01 37.95144 119.89078 35251 ft 462 kts 301°
2026-05-04 21:01 37.96728 119.85542 35492 ft 461 kts 301°
2026-05-04 21:02 37.98293 119.82047 35708 ft 461 kts 301°
2026-05-04 21:02 37.99870 119.78521 35925 ft 460 kts 301°
2026-05-04 21:02 38.01455 119.74977 36026 ft 463 kts 301°
2026-05-04 21:02 38.03055 119.71407 36029 ft 467 kts 301°
2026-05-04 21:03 38.06253 119.64227 36027 ft 467 kts 301°
2026-05-04 21:03 38.09444 119.57033 36022 ft 467 kts 301°
2026-05-04 21:04 38.12298 119.49599 36017 ft 469 kts 295°
2026-05-04 21:04 38.14818 119.42006 36013 ft 470 kts 294°
2026-05-04 21:05 38.17307 119.34318 36006 ft 471 kts 294°
2026-05-04 21:05 38.19794 119.26617 36002 ft 471 kts 294°
2026-05-04 21:06 38.22282 119.18917 36001 ft 471 kts 295°
2026-05-04 21:06 38.24777 119.11189 35995 ft 471 kts 295°
2026-05-04 21:07 38.27262 119.03471 35993 ft 472 kts 295°
2026-05-04 21:07 38.29743 118.95743 35987 ft 472 kts 295°
2026-05-04 21:08 38.32220 118.88006 35985 ft 472 kts 295°
2026-05-04 21:08 38.34689 118.80274 35977 ft 472 kts 295°
2026-05-04 21:09 38.37144 118.72581 35975 ft 471 kts 295°
2026-05-04 21:09 38.39618 118.64839 35972 ft 471 kts 295°
2026-05-04 21:10 38.42086 118.57095 35968 ft 471 kts 295°
2026-05-04 21:10 38.44546 118.49350 35965 ft 471 kts 295°
2026-05-04 21:11 38.47004 118.41594 35969 ft 471 kts 295°
2026-05-04 21:11 38.49454 118.33845 35967 ft 471 kts 295°
2026-05-04 21:12 38.51876 118.26144 35960 ft 470 kts 295°
2026-05-04 21:12 38.54308 118.18394 35952 ft 470 kts 295°
2026-05-04 21:13 38.56732 118.10649 35954 ft 469 kts 295°
2026-05-04 21:13 38.59560 118.03191 35946 ft 464 kts 306°
2026-05-04 21:14 38.63634 117.96868 35951 ft 460 kts 315°
2026-05-04 21:14 38.68041 117.90943 35946 ft 459 kts 316°
2026-05-04 21:15 38.72476 117.85086 35939 ft 458 kts 316°
2026-05-04 21:15 38.76902 117.79199 35934 ft 458 kts 316°
2026-05-04 21:16 38.81271 117.73342 35941 ft 457 kts 316°
2026-05-04 21:16 38.85658 117.67441 35930 ft 457 kts 316°
2026-05-04 21:17 38.90044 117.61528 35932 ft 456 kts 315°
2026-05-04 21:17 38.94416 117.55625 35923 ft 456 kts 315°
2026-05-04 21:18 38.98787 117.49714 35925 ft 456 kts 315°
2026-05-04 21:18 39.03143 117.43806 35931 ft 455 kts 315°
2026-05-04 21:19 39.06839 117.37227 35927 ft 460 kts 300°
2026-05-04 21:19 39.08955 117.29430 35931 ft 467 kts 285°
2026-05-04 21:20 39.10141 117.21191 35934 ft 468 kts 283°
2026-05-04 21:20 39.11187 117.12910 35923 ft 468 kts 283°
2026-05-04 21:21 39.12243 117.04639 35918 ft 468 kts 283°
2026-05-04 21:21 39.13332 116.96383 35906 ft 467 kts 284°
2026-05-04 21:22 39.14608 116.88185 35901 ft 466 kts 285°
2026-05-04 21:22 39.15929 116.80073 35904 ft 466 kts 285°
2026-05-04 21:23 39.17231 116.71885 35899 ft 466 kts 284°
2026-05-04 21:23 39.18490 116.63692 35896 ft 467 kts 283°
2026-05-04 21:24 39.18718 116.55307 35898 ft 474 kts 267°
2026-05-04 21:24 39.17249 116.46959 35893 ft 479 kts 258°
2026-05-04 21:25 39.15338 116.38725 35897 ft 480 kts 257°
2026-05-04 21:25 39.13375 116.30503 35891 ft 480 kts 257°
2026-05-04 21:26 39.11448 116.22319 35888 ft 480 kts 257°
2026-05-04 21:26 39.09524 116.14084 35887 ft 480 kts 257°
2026-05-04 21:27 39.07601 116.05860 35888 ft 480 kts 257°
2026-05-04 21:27 39.05670 115.97632 35887 ft 480 kts 257°
2026-05-04 21:28 39.03735 115.89423 35884 ft 480 kts 257°
2026-05-04 21:28 39.01789 115.81197 35884 ft 480 kts 257°
2026-05-04 21:29 38.99843 115.73000 35886 ft 480 kts 257°
2026-05-04 21:29 38.97892 115.64811 35883 ft 479 kts 256°
2026-05-04 21:30 38.95947 115.56672 35886 ft 479 kts 256°
2026-05-04 21:30 38.93748 115.48578 35886 ft 482 kts 251°
2026-05-04 21:31 38.89684 115.36754 35882 ft 483 kts 249°
2026-05-04 21:32 38.86910 115.28912 35881 ft 483 kts 249°
2026-05-04 21:32 38.84135 115.21064 35884 ft 482 kts 249°
2026-05-04 21:33 38.81367 115.13233 35886 ft 482 kts 249°
2026-05-04 21:33 38.78613 115.05455 35890 ft 482 kts 249°
2026-05-04 21:34 38.75820 114.97585 35898 ft 482 kts 249°
2026-05-04 21:34 38.73063 114.89820 35896 ft 482 kts 249°
2026-05-04 21:35 38.70281 114.82014 35897 ft 482 kts 249°
2026-05-04 21:35 38.67495 114.74214 35898 ft 482 kts 249°
2026-05-04 21:36 38.64703 114.66420 35898 ft 482 kts 249°
2026-05-04 21:36 38.61904 114.58628 35901 ft 482 kts 248°
2026-05-04 21:37 38.59096 114.50902 35904 ft 482 kts 248°
2026-05-04 21:37 38.56280 114.43130 35907 ft 482 kts 248°
2026-05-04 21:38 38.53463 114.35361 35906 ft 482 kts 248°
2026-05-04 21:38 38.50638 114.27592 35909 ft 482 kts 248°
2026-05-04 21:39 38.47813 114.19843 35915 ft 482 kts 248°
2026-05-04 21:39 38.44976 114.12085 35909 ft 482 kts 248°
2026-05-04 21:40 38.42156 114.04389 35909 ft 482 kts 248°
2026-05-04 21:40 38.39314 113.96637 35921 ft 482 kts 248°
2026-05-04 21:41 38.36945 113.90198 35931 ft 482 kts 248°
2026-05-04 21:41 38.33609 113.81151 35936 ft 483 kts 248°
2026-05-04 21:42 38.31209 113.74726 35942 ft 483 kts 248°
2026-05-04 21:42 38.28296 113.67040 35954 ft 483 kts 247°
2026-05-04 21:43 38.25372 113.59337 35961 ft 483 kts 247°
2026-05-04 21:43 38.22447 113.51632 35969 ft 483 kts 247°
2026-05-04 21:44 38.19522 113.43935 35977 ft 484 kts 247°
2026-05-04 21:44 38.16608 113.36285 35981 ft 484 kts 247°
2026-05-04 21:45 38.13709 113.28578 35988 ft 484 kts 248°
2026-05-04 21:45 38.10837 113.20843 35993 ft 484 kts 248°
2026-05-04 21:46 38.07956 113.13110 36000 ft 484 kts 248°
2026-05-04 21:46 38.05065 113.05395 35998 ft 484 kts 248°
2026-05-04 21:47 38.02188 112.97751 36005 ft 484 kts 248°
2026-05-04 21:47 37.99283 112.90046 36004 ft 484 kts 248°
2026-05-04 21:48 37.96374 112.82353 36011 ft 484 kts 248°
2026-05-04 21:48 37.93465 112.74677 36012 ft 483 kts 248°
2026-05-04 21:49 37.90555 112.67015 36011 ft 483 kts 248°
2026-05-04 21:49 37.87638 112.59355 36014 ft 483 kts 248°
2026-05-04 21:50 37.84614 112.51824 36011 ft 484 kts 245°
2026-05-04 21:50 37.81384 112.44353 36013 ft 484 kts 244°
2026-05-04 21:51 37.78784 112.36601 36012 ft 476 kts 259°
2026-05-04 21:51 37.78115 112.28389 36007 ft 467 kts 277°
2026-05-04 21:52 37.78762 112.20242 36006 ft 466 kts 280°
2026-05-04 21:52 37.79597 112.12189 36014 ft 465 kts 280°
2026-05-04 21:53 37.80422 112.04081 36008 ft 464 kts 280°
2026-05-04 21:53 37.81206 111.95972 36009 ft 464 kts 279°
2026-05-04 21:54 37.81968 111.87864 36014 ft 464 kts 279°
2026-05-04 21:54 37.82724 111.79752 36010 ft 464 kts 279°
2026-05-04 21:55 37.83477 111.71654 36199 ft 464 kts 279°
2026-05-04 21:55 37.83873 111.67611 36503 ft 461 kts 281°
2026-05-04 21:55 37.84306 111.63604 36801 ft 459 kts 281°
2026-05-04 21:55 37.84798 111.59626 37031 ft 456 kts 285°
2026-05-04 21:56 37.85615 111.55762 37237 ft 453 kts 292°
2026-05-04 21:56 37.86813 111.52167 37470 ft 448 kts 300°
2026-05-04 21:56 37.88422 111.48805 37654 ft 446 kts 308°
2026-05-04 21:56 37.90408 111.45804 37826 ft 444 kts 316°
2026-05-04 21:57 37.92700 111.43200 37971 ft 444 kts 321°
2026-05-04 21:57 37.97573 111.38322 37976 ft 448 kts 323°
2026-05-04 21:58 38.02518 111.33531 37975 ft 447 kts 323°
2026-05-04 21:58 38.07446 111.28714 37974 ft 447 kts 322°
2026-05-04 21:59 38.12324 111.23898 37983 ft 446 kts 322°
2026-05-04 21:59 38.17210 111.19049 37974 ft 446 kts 322°
2026-05-04 22:00 38.22099 111.14190 37950 ft 446 kts 322°
2026-05-04 22:00 38.26984 111.09327 37936 ft 445 kts 322°
2026-05-04 22:01 38.31852 111.04472 37951 ft 445 kts 322°
2026-05-04 22:01 38.36721 110.99610 37945 ft 444 kts 322°
2026-05-04 22:02 38.41585 110.94746 37944 ft 444 kts 322°
2026-05-04 22:02 38.46439 110.89882 37939 ft 443 kts 322°
2026-05-04 22:03 38.51238 110.85033 37932 ft 443 kts 322°
2026-05-04 22:03 38.56085 110.80168 37915 ft 443 kts 322°
2026-05-04 22:04 38.60922 110.75312 37929 ft 443 kts 322°
2026-05-04 22:04 38.65762 110.70434 37924 ft 442 kts 322°
2026-05-04 22:05 38.70588 110.65555 37929 ft 442 kts 322°
2026-05-04 22:05 38.75402 110.60678 37923 ft 441 kts 322°
2026-05-04 22:06 38.80209 110.55801 37908 ft 440 kts 322°
2026-05-04 22:06 38.84982 110.50950 37908 ft 440 kts 322°
2026-05-04 22:07 38.89775 110.46071 37922 ft 439 kts 322°
2026-05-04 22:07 38.94559 110.41191 37908 ft 439 kts 322°
2026-05-04 22:08 38.99353 110.36335 37919 ft 438 kts 322°
2026-05-04 22:08 39.04150 110.31508 37914 ft 437 kts 322°
2026-05-04 22:09 39.08905 110.26715 37919 ft 437 kts 322°
2026-05-04 22:09 39.13583 110.21752 37910 ft 437 kts 316°
2026-05-04 22:10 39.17328 110.15593 37909 ft 440 kts 302°
2026-05-04 22:10 39.19545 110.08190 37907 ft 448 kts 286°
2026-05-04 22:11 39.20244 110.00154 37910 ft 454 kts 279°
2026-05-04 22:11 39.20593 109.92021 37904 ft 455 kts 278°
2026-05-04 22:12 39.20919 109.83874 37910 ft 454 kts 278°
2026-05-04 22:12 39.21270 109.75804 37901 ft 454 kts 278°
2026-05-04 22:13 39.21637 109.67680 37890 ft 453 kts 278°
2026-05-04 22:13 39.22001 109.59565 37897 ft 453 kts 278°
2026-05-04 22:14 39.22357 109.51462 37896 ft 453 kts 278°
2026-05-04 22:14 39.22699 109.43355 37891 ft 453 kts 278°
2026-05-04 22:15 39.23000 109.35265 37887 ft 452 kts 278°
2026-05-04 22:15 39.23295 109.27201 37894 ft 452 kts 278°
2026-05-04 22:16 39.23590 109.19119 37885 ft 451 kts 278°
2026-05-04 22:16 39.23883 109.11038 37890 ft 451 kts 278°
2026-05-04 22:17 39.24171 109.02964 37879 ft 450 kts 278°
2026-05-04 22:17 39.24452 108.94895 37870 ft 450 kts 278°
2026-05-04 22:18 39.24727 108.86834 37873 ft 450 kts 278°
2026-05-04 22:18 39.25000 108.78820 37880 ft 450 kts 278°
2026-05-04 22:19 39.25266 108.70767 37864 ft 449 kts 278°
2026-05-04 22:19 39.25525 108.62713 37880 ft 449 kts 278°
2026-05-04 22:20 39.25780 108.54652 37860 ft 449 kts 278°
2026-05-04 22:20 39.26031 108.46604 37860 ft 449 kts 278°
2026-05-04 22:21 39.26274 108.38560 37867 ft 449 kts 278°
2026-05-04 22:21 39.26513 108.30514 37859 ft 449 kts 278°
2026-05-04 22:22 39.26753 108.22526 37855 ft 447 kts 279°
2026-05-04 22:22 39.27841 108.14746 37859 ft 436 kts 293°
2026-05-04 22:23 39.30492 108.07823 37855 ft 427 kts 308°
2026-05-04 22:23 39.34506 108.02243 37856 ft 424 kts 320°
2026-05-04 22:24 39.39012 107.97321 37853 ft 424 kts 321°
2026-05-04 22:24 39.43569 107.92469 37860 ft 425 kts 321°
2026-05-04 22:25 39.48091 107.87612 37840 ft 425 kts 321°
2026-05-04 22:25 39.52628 107.82693 37841 ft 425 kts 320°
2026-05-04 22:26 39.57162 107.77756 37836 ft 426 kts 320°
2026-05-04 22:26 39.61695 107.72812 37834 ft 426 kts 320°
2026-05-04 22:27 39.66234 107.67856 37830 ft 426 kts 320°
2026-05-04 22:27 39.70738 107.62929 37841 ft 427 kts 320°
2026-05-04 22:28 39.75282 107.57952 37840 ft 427 kts 320°
2026-05-04 22:28 39.79825 107.52964 37827 ft 427 kts 320°
2026-05-04 22:29 39.84364 107.47972 37832 ft 427 kts 320°
2026-05-04 22:29 39.88913 107.42960 37815 ft 428 kts 320°
2026-05-04 22:30 39.93448 107.37955 37816 ft 428 kts 320°
2026-05-04 22:30 39.97963 107.32963 37804 ft 428 kts 320°
2026-05-04 22:31 40.02504 107.27934 37803 ft 428 kts 320°
2026-05-04 22:31 40.07038 107.22902 37800 ft 428 kts 320°
2026-05-04 22:32 40.11584 107.17850 37799 ft 428 kts 319°
2026-05-04 22:32 40.16093 107.12828 37801 ft 429 kts 319°
2026-05-04 22:33 40.20631 107.07764 37796 ft 429 kts 319°
2026-05-04 22:33 40.25168 107.02694 37790 ft 429 kts 319°
2026-05-04 22:34 40.29386 106.97180 37791 ft 430 kts 309°
2026-05-04 22:34 40.32396 106.90406 37800 ft 434 kts 295°
2026-05-04 22:35 40.34527 106.82984 37793 ft 436 kts 292°
2026-05-04 22:35 40.36468 106.75461 37794 ft 436 kts 291°
2026-05-04 22:36 40.38402 106.67976 37791 ft 436 kts 292°
2026-05-04 22:36 40.40377 106.60448 37794 ft 437 kts 292°
2026-05-04 22:37 40.42364 106.52910 37793 ft 437 kts 292°
2026-05-04 22:37 40.44345 106.45378 37788 ft 437 kts 292°
2026-05-04 22:38 40.46323 106.37831 37789 ft 437 kts 292°
2026-05-04 22:38 40.48295 106.30278 37789 ft 437 kts 291°
2026-05-04 22:39 40.50262 106.22724 37788 ft 437 kts 291°
2026-05-04 22:39 40.52210 106.15215 37788 ft 437 kts 291°
2026-05-04 22:40 40.54169 106.07639 37790 ft 438 kts 291°
2026-05-04 22:40 40.56125 106.00059 37789 ft 438 kts 291°
2026-05-04 22:41 40.58076 105.92470 37790 ft 438 kts 291°
2026-05-04 22:41 40.60026 105.84860 37788 ft 439 kts 291°
2026-05-04 22:42 40.61958 105.77299 37788 ft 439 kts 291°
2026-05-04 22:42 40.63900 105.69672 37788 ft 439 kts 291°
2026-05-04 22:43 40.65839 105.62038 37789 ft 440 kts 291°
2026-05-04 22:43 40.67773 105.54394 37790 ft 440 kts 291°
2026-05-04 22:44 40.69706 105.46733 37785 ft 441 kts 291°
2026-05-04 22:44 40.71637 105.39053 37787 ft 441 kts 290°
2026-05-04 22:45 40.73550 105.31421 37787 ft 442 kts 290°
2026-05-04 22:45 40.76436 105.19861 37788 ft 443 kts 290°
2026-05-04 22:46 40.78354 105.12143 37786 ft 443 kts 290°
2026-05-04 22:46 40.80272 105.04403 37784 ft 444 kts 290°
2026-05-04 22:47 40.82184 104.96661 37780 ft 444 kts 290°
2026-05-04 22:47 40.83126 104.92840 37606 ft 443 kts 290°
2026-05-04 22:47 40.84051 104.89016 37754 ft 431 kts 290°
2026-05-04 22:48 40.85849 104.81635 37778 ft 417 kts 290°
2026-05-04 22:48 40.87639 104.74384 37772 ft 415 kts 290°
2026-05-04 22:49 40.89419 104.67132 37769 ft 415 kts 290°
2026-05-04 22:49 40.91190 104.59859 37760 ft 415 kts 289°
2026-05-04 22:50 40.92951 104.52591 37759 ft 415 kts 289°
2026-05-04 22:50 40.94698 104.45358 37751 ft 416 kts 289°
2026-05-04 22:51 40.96453 104.38072 37749 ft 415 kts 289°
2026-05-04 22:51 40.98203 104.30779 37751 ft 415 kts 289°
2026-05-04 22:52 41.00164 104.23593 37747 ft 415 kts 292°
2026-05-04 22:52 41.01938 104.17688 37742 ft 415 kts 292°
2026-05-04 22:53 41.04051 104.10580 37744 ft 415 kts 292°
2026-05-04 22:53 41.06120 104.03443 37749 ft 415 kts 292°
2026-05-04 22:54 41.08161 103.96315 37744 ft 415 kts 291°
2026-05-04 22:54 41.10201 103.89161 37746 ft 415 kts 291°
2026-05-04 22:55 41.12238 103.82002 37748 ft 415 kts 291°
2026-05-04 22:55 41.14267 103.74857 37746 ft 415 kts 291°
2026-05-04 22:56 41.16296 103.67692 37746 ft 414 kts 291°
2026-05-04 22:56 41.18305 103.60580 37741 ft 414 kts 291°
2026-05-04 22:57 41.20320 103.53423 37744 ft 414 kts 291°
2026-05-04 22:57 41.22330 103.46268 37739 ft 413 kts 291°
2026-05-04 22:58 41.24335 103.39107 37741 ft 413 kts 291°
2026-05-04 22:58 41.26331 103.31959 37737 ft 413 kts 291°
2026-05-04 22:59 41.28325 103.24800 37736 ft 412 kts 291°
2026-05-04 22:59 41.30309 103.17655 37734 ft 412 kts 291°
2026-05-04 23:00 41.32287 103.10509 37739 ft 412 kts 291°
2026-05-04 23:00 41.34248 103.03409 37736 ft 411 kts 290°
2026-05-04 23:01 41.36223 102.96266 37737 ft 411 kts 291°
2026-05-04 23:01 41.38266 102.89178 37737 ft 410 kts 291°
2026-05-04 23:02 41.40329 102.82091 37734 ft 410 kts 291°
2026-05-04 23:02 41.42373 102.75016 37735 ft 409 kts 291°
2026-05-04 23:03 41.44403 102.67946 37737 ft 409 kts 291°
2026-05-04 23:03 41.46440 102.60870 37731 ft 409 kts 291°
2026-05-04 23:04 41.48470 102.53797 37732 ft 408 kts 291°
2026-05-04 23:04 41.50479 102.46781 37734 ft 408 kts 291°
2026-05-04 23:05 41.52496 102.39713 37734 ft 407 kts 291°
2026-05-04 23:05 41.54509 102.32644 37734 ft 407 kts 291°
2026-05-04 23:06 41.56517 102.25572 37730 ft 407 kts 291°
2026-05-04 23:06 41.58506 102.18546 37730 ft 407 kts 291°
2026-05-04 23:07 41.60502 102.11478 37731 ft 407 kts 291°
2026-05-04 23:07 41.62492 102.04408 37731 ft 406 kts 290°
2026-05-04 23:08 41.64481 101.97325 37729 ft 406 kts 290°
2026-05-04 23:08 41.66463 101.90246 37729 ft 406 kts 290°
2026-05-04 23:09 41.68440 101.83166 37728 ft 406 kts 290°
2026-05-04 23:09 41.70398 101.76133 37727 ft 406 kts 290°
2026-05-04 23:10 41.72363 101.69055 37727 ft 405 kts 290°
2026-05-04 23:10 41.74320 101.61984 37729 ft 405 kts 290°
2026-05-04 23:11 41.76273 101.54907 37727 ft 405 kts 290°
2026-05-04 23:11 41.78224 101.47824 37726 ft 405 kts 290°
2026-05-04 23:12 41.80170 101.40735 37730 ft 405 kts 290°
2026-05-04 23:12 41.82096 101.33699 37729 ft 405 kts 290°
2026-05-04 23:13 41.84014 101.26609 37726 ft 405 kts 288°
2026-05-04 23:13 41.85142 101.19233 37729 ft 406 kts 276°
2026-05-04 23:14 41.85445 101.11656 37731 ft 407 kts 275°
2026-05-04 23:14 41.85610 101.04074 37730 ft 407 kts 274°
2026-05-04 23:15 41.85763 100.96488 37730 ft 406 kts 274°
2026-05-04 23:15 41.85929 100.88908 37733 ft 406 kts 274°
2026-05-04 23:16 41.86097 100.81387 37735 ft 406 kts 274°
2026-05-04 23:16 41.86262 100.73829 37735 ft 405 kts 274°
2026-05-04 23:17 41.86422 100.66270 37737 ft 405 kts 274°
2026-05-04 23:17 41.86577 100.58707 37739 ft 405 kts 274°
2026-05-04 23:18 41.86726 100.51157 37737 ft 405 kts 274°
2026-05-04 23:18 41.86870 100.43617 37739 ft 404 kts 274°
2026-05-04 23:19 41.87008 100.36133 37740 ft 404 kts 274°
2026-05-04 23:19 41.87143 100.28595 37736 ft 404 kts 274°
2026-05-04 23:20 41.87272 100.21064 37737 ft 404 kts 274°
2026-05-04 23:20 41.87396 100.13542 37747 ft 404 kts 274°
2026-05-04 23:21 41.87515 100.06017 37747 ft 403 kts 274°
2026-05-04 23:21 41.87629 99.98498 37749 ft 403 kts 274°
2026-05-04 23:22 41.87739 99.90981 37747 ft 403 kts 274°
2026-05-04 23:22 41.87842 99.83512 37746 ft 403 kts 274°
2026-05-04 23:23 41.87942 99.76005 37743 ft 402 kts 273°
2026-05-04 23:23 41.88036 99.68505 37747 ft 402 kts 273°
2026-05-04 23:24 41.88126 99.60996 37749 ft 402 kts 273°
2026-05-04 23:24 41.88210 99.53512 37747 ft 402 kts 273°
2026-05-04 23:25 41.88289 99.46016 37755 ft 401 kts 273°
2026-05-04 23:25 41.88364 99.38529 37758 ft 401 kts 273°
2026-05-04 23:26 41.88434 99.31047 37751 ft 401 kts 273°
2026-05-04 23:26 41.88499 99.23625 37762 ft 401 kts 273°
2026-05-04 23:27 41.88559 99.16146 37764 ft 400 kts 273°
2026-05-04 23:27 41.88614 99.08675 37767 ft 400 kts 273°
2026-05-04 23:28 41.88665 99.01198 37770 ft 400 kts 273°
2026-05-04 23:28 41.88710 98.93736 37780 ft 400 kts 273°
2026-05-04 23:29 41.88751 98.86278 37780 ft 400 kts 273°
2026-05-04 23:29 41.88787 98.78811 37786 ft 400 kts 273°
2026-05-04 23:30 41.88818 98.71358 37790 ft 399 kts 272°
2026-05-04 23:30 41.88844 98.63906 37794 ft 399 kts 272°
2026-05-04 23:31 41.88865 98.56513 37799 ft 399 kts 272°
2026-05-04 23:31 41.88882 98.49069 37800 ft 399 kts 272°
2026-05-04 23:32 41.88893 98.41629 37806 ft 399 kts 272°
2026-05-04 23:32 41.88901 98.34193 37813 ft 398 kts 272°
2026-05-04 23:33 41.88903 98.26766 37816 ft 398 kts 272°
2026-05-04 23:33 41.88900 98.19343 37821 ft 398 kts 272°
2026-05-04 23:34 41.88893 98.11958 37823 ft 398 kts 272°
2026-05-04 23:34 41.88880 98.04532 37840 ft 397 kts 272°
2026-05-04 23:35 41.88864 97.97121 37830 ft 397 kts 272°
2026-05-04 23:35 41.88842 97.89698 37834 ft 397 kts 272°
2026-05-04 23:36 41.88815 97.82335 37835 ft 397 kts 272°
2026-05-04 23:36 41.88784 97.74930 37836 ft 397 kts 272°
2026-05-04 23:37 41.88748 97.67524 37838 ft 397 kts 272°
2026-05-04 23:37 41.88707 97.60110 37862 ft 397 kts 271°
2026-05-04 23:38 41.88662 97.52708 37851 ft 397 kts 271°
2026-05-04 23:38 41.88612 97.45305 37867 ft 397 kts 271°
2026-05-04 23:39 41.88557 97.37914 37856 ft 396 kts 271°
2026-05-04 23:39 41.88497 97.30562 37867 ft 396 kts 271°
2026-05-04 23:40 41.88433 97.23173 37875 ft 396 kts 271°
2026-05-04 23:40 41.88364 97.15797 37890 ft 395 kts 271°
2026-05-04 23:41 41.88290 97.08412 37898 ft 395 kts 271°
2026-05-04 23:41 41.88212 97.01037 37891 ft 395 kts 271°
2026-05-04 23:42 41.88130 96.93660 37902 ft 395 kts 271°
2026-05-04 23:42 41.88041 96.86287 37905 ft 395 kts 271°
2026-05-04 23:43 41.87949 96.78906 37902 ft 395 kts 271°
2026-05-04 23:43 41.87852 96.71581 37910 ft 395 kts 271°
2026-05-04 23:44 41.87750 96.64215 37911 ft 395 kts 271°
2026-05-04 23:44 41.87644 96.56836 37927 ft 395 kts 270°
2026-05-04 23:45 41.87532 96.49458 37922 ft 395 kts 270°
2026-05-04 23:45 41.87416 96.42084 37928 ft 395 kts 270°
2026-05-04 23:46 41.87295 96.34712 37923 ft 395 kts 270°
2026-05-04 23:46 41.87170 96.27334 37936 ft 395 kts 270°
2026-05-04 23:47 41.87059 96.20014 37925 ft 395 kts 271°
2026-05-04 23:47 41.87028 96.12654 37935 ft 395 kts 271°
2026-05-04 23:48 41.87006 96.05288 37925 ft 395 kts 271°
2026-05-04 23:48 41.86967 95.97921 37935 ft 395 kts 271°
2026-05-04 23:49 41.86915 95.90555 37927 ft 395 kts 271°
2026-05-04 23:49 41.86857 95.83181 37916 ft 395 kts 270°
2026-05-04 23:50 41.86795 95.75814 37911 ft 395 kts 270°
2026-05-04 23:50 41.86728 95.68505 37910 ft 394 kts 270°
2026-05-04 23:51 41.86656 95.61146 37896 ft 394 kts 270°
2026-05-04 23:51 41.86581 95.53785 37894 ft 395 kts 270°
2026-05-04 23:52 41.86500 95.46428 37890 ft 395 kts 270°
2026-05-04 23:52 41.86415 95.39062 37882 ft 394 kts 270°
2026-05-04 23:53 41.86325 95.31724 37872 ft 394 kts 270°
2026-05-04 23:53 41.86805 95.24401 37868 ft 395 kts 281°
2026-05-04 23:54 41.88613 95.17482 37864 ft 400 kts 293°
2026-05-04 23:54 41.91807 95.11278 37868 ft 409 kts 303°
2026-05-04 23:55 41.95557 95.05505 37837 ft 411 kts 305°
2026-05-04 23:56 42.01267 94.96900 37851 ft 411 kts 304°
2026-05-04 23:56 42.05039 94.91143 37846 ft 411 kts 304°
2026-05-04 23:57 42.08822 94.85331 37826 ft 412 kts 304°
2026-05-04 23:57 42.12594 94.79520 37823 ft 412 kts 304°
2026-05-04 23:58 42.16347 94.73730 37819 ft 413 kts 304°
2026-05-04 23:58 42.20127 94.67887 37821 ft 413 kts 304°
2026-05-04 23:59 42.23905 94.62038 37818 ft 414 kts 304°
2026-05-04 23:59 42.27683 94.56177 37822 ft 414 kts 304°
2026-05-05 00:00 42.30824 94.51295 37816 ft 414 kts 304°
2026-05-05 00:00 42.34602 94.45410 37813 ft 415 kts 304°
2026-05-05 00:01 42.38996 94.38553 37822 ft 415 kts 304°
2026-05-05 00:01 42.42163 94.33602 37818 ft 415 kts 304°
2026-05-05 00:02 42.45912 94.27729 37819 ft 415 kts 304°
2026-05-05 00:02 42.49684 94.21807 37822 ft 415 kts 304°
2026-05-05 00:03 42.53455 94.15877 37815 ft 415 kts 304°
2026-05-05 00:03 42.57217 94.09947 37824 ft 415 kts 304°
2026-05-05 00:04 42.60985 94.03996 37824 ft 415 kts 304°
2026-05-05 00:04 42.64746 93.98045 37823 ft 416 kts 304°
2026-05-05 00:05 42.68484 93.92117 37822 ft 415 kts 304°
2026-05-05 00:05 42.72241 93.86148 37822 ft 415 kts 304°
2026-05-05 00:06 42.75996 93.80171 37820 ft 415 kts 303°
2026-05-05 00:06 42.79742 93.74193 37821 ft 416 kts 303°
2026-05-05 00:07 42.83306 93.68039 37820 ft 410 kts 297°
2026-05-05 00:07 42.85760 93.61141 37819 ft 403 kts 287°
2026-05-05 00:08 42.87620 93.53983 37817 ft 403 kts 285°
2026-05-05 00:08 42.89399 93.46742 37814 ft 403 kts 285°
2026-05-05 00:09 42.91181 93.39487 37816 ft 403 kts 285°
2026-05-05 00:09 42.92972 93.32242 37814 ft 404 kts 285°
2026-05-05 00:10 42.94771 93.24971 37813 ft 404 kts 285°
2026-05-05 00:10 42.96563 93.17706 37812 ft 404 kts 285°
2026-05-05 00:11 42.98355 93.10418 37816 ft 405 kts 285°
2026-05-05 00:11 43.00142 93.03127 37820 ft 405 kts 285°
2026-05-05 00:12 43.01915 92.95866 37824 ft 406 kts 285°
2026-05-05 00:12 43.03695 92.88554 37824 ft 406 kts 285°
2026-05-05 00:13 43.05476 92.81217 37830 ft 406 kts 285°
2026-05-05 00:13 43.07251 92.73881 37835 ft 407 kts 285°
2026-05-05 00:14 43.09024 92.66528 37838 ft 407 kts 285°
2026-05-05 00:14 43.10796 92.59157 37847 ft 408 kts 285°
2026-05-05 00:15 43.12551 92.51829 37851 ft 408 kts 285°
2026-05-05 00:15 43.14315 92.44440 37860 ft 408 kts 285°
2026-05-05 00:16 43.16076 92.37042 37869 ft 409 kts 285°
2026-05-05 00:16 43.17837 92.29619 37879 ft 409 kts 285°
2026-05-05 00:17 43.19592 92.22196 37891 ft 410 kts 284°
2026-05-05 00:17 43.21344 92.14764 37880 ft 410 kts 284°
2026-05-05 00:18 43.23093 92.07316 37886 ft 411 kts 284°
2026-05-05 00:18 43.24828 91.99904 37894 ft 411 kts 284°
2026-05-05 00:19 43.26571 91.92435 37900 ft 412 kts 284°
2026-05-05 00:19 43.28313 91.84943 37916 ft 412 kts 284°
2026-05-05 00:20 43.30051 91.77443 37911 ft 412 kts 284°
2026-05-05 00:20 43.31784 91.69941 37919 ft 413 kts 284°
2026-05-05 00:21 43.33516 91.62417 37936 ft 413 kts 284°
2026-05-05 00:21 43.35245 91.54880 37935 ft 414 kts 284°
2026-05-05 00:22 43.36957 91.47391 37945 ft 414 kts 284°
2026-05-05 00:22 43.38682 91.39818 37952 ft 415 kts 284°
2026-05-05 00:23 43.40402 91.32251 37950 ft 415 kts 284°
2026-05-05 00:23 43.42116 91.24673 37958 ft 416 kts 284°
2026-05-05 00:24 43.43826 91.17066 37981 ft 416 kts 284°
2026-05-05 00:24 43.45530 91.09453 37980 ft 417 kts 284°
2026-05-05 00:25 43.47224 91.01864 37987 ft 417 kts 284°
2026-05-05 00:25 43.48924 90.94231 37992 ft 417 kts 284°
2026-05-05 00:26 43.50620 90.86586 38014 ft 418 kts 284°
2026-05-05 00:26 43.52314 90.78920 38021 ft 419 kts 284°
2026-05-05 00:27 43.54007 90.71229 38023 ft 420 kts 283°
2026-05-05 00:27 43.55699 90.63512 38033 ft 420 kts 283°
2026-05-05 00:28 43.57387 90.55793 38040 ft 421 kts 284°
2026-05-05 00:28 43.59062 90.48104 38052 ft 422 kts 284°
2026-05-05 00:29 43.60745 90.40346 38066 ft 422 kts 283°
2026-05-05 00:29 43.62424 90.32584 38077 ft 422 kts 284°
2026-05-05 00:30 43.64106 90.24822 38086 ft 423 kts 283°
2026-05-05 00:30 43.65778 90.17029 38091 ft 424 kts 283°
2026-05-05 00:31 43.67445 90.09214 38092 ft 424 kts 283°
2026-05-05 00:31 43.69161 90.01404 38097 ft 425 kts 284°
2026-05-05 00:32 43.70956 89.93613 38098 ft 426 kts 284°
2026-05-05 00:32 43.72737 89.85864 38105 ft 426 kts 284°
2026-05-05 00:33 43.74515 89.78033 38099 ft 427 kts 284°
2026-05-05 00:33 43.76281 89.70194 38100 ft 428 kts 284°
2026-05-05 00:34 43.78047 89.62326 38103 ft 428 kts 284°
2026-05-05 00:34 43.79809 89.54451 38102 ft 429 kts 284°
2026-05-05 00:35 43.81579 89.46608 38106 ft 430 kts 284°
2026-05-05 00:35 43.83413 89.38726 38106 ft 430 kts 285°
2026-05-05 00:36 43.85250 89.30822 38104 ft 431 kts 284°
2026-05-05 00:36 43.87077 89.22898 38106 ft 431 kts 284°
2026-05-05 00:37 43.88896 89.14961 38114 ft 432 kts 284°
2026-05-05 00:37 43.90696 89.07072 38116 ft 433 kts 284°
2026-05-05 00:38 43.92504 88.99119 38119 ft 433 kts 284°
2026-05-05 00:38 43.94314 88.91132 38123 ft 434 kts 284°
2026-05-05 00:39 43.96119 88.83138 38126 ft 434 kts 284°
2026-05-05 00:39 43.97988 88.75156 38124 ft 435 kts 286°
2026-05-05 00:40 44.00043 88.67233 38133 ft 436 kts 287°
2026-05-05 00:40 44.02093 88.59351 38136 ft 437 kts 287°
2026-05-05 00:41 44.04121 88.51389 38131 ft 437 kts 286°
2026-05-05 00:41 44.06126 88.43425 38144 ft 437 kts 286°
2026-05-05 00:42 44.08126 88.35444 38142 ft 437 kts 286°
2026-05-05 00:42 44.10123 88.27449 38131 ft 437 kts 286°
2026-05-05 00:43 44.12115 88.19447 38141 ft 438 kts 286°
2026-05-05 00:43 44.14108 88.11419 38139 ft 439 kts 286°
2026-05-05 00:44 44.16086 88.03440 38122 ft 440 kts 286°
2026-05-05 00:44 44.18824 87.95779 38136 ft 446 kts 301°
2026-05-05 00:45 44.22461 87.88721 38118 ft 449 kts 302°
2026-05-05 00:45 44.26239 87.81762 38120 ft 450 kts 303°
2026-05-05 00:46 44.30026 87.74793 38125 ft 451 kts 303°
2026-05-05 00:46 44.33767 87.67847 38121 ft 451 kts 302°
2026-05-05 00:47 44.37576 87.60877 38127 ft 451 kts 303°
2026-05-05 00:47 44.41410 87.53931 38121 ft 451 kts 303°
2026-05-05 00:48 44.45236 87.46971 38124 ft 451 kts 303°
2026-05-05 00:48 44.49052 87.39996 38126 ft 451 kts 303°
2026-05-05 00:49 44.52861 87.33008 38120 ft 451 kts 303°
2026-05-05 00:49 44.56681 87.26023 38119 ft 452 kts 304°
2026-05-05 00:50 44.60647 87.19175 38121 ft 453 kts 305°
2026-05-05 00:50 44.64630 87.12401 38118 ft 453 kts 305°
2026-05-05 00:51 44.68619 87.05549 38117 ft 453 kts 305°
2026-05-05 00:51 44.72589 86.98672 38112 ft 453 kts 305°
2026-05-05 00:52 44.76562 86.91790 38109 ft 453 kts 305°
2026-05-05 00:52 44.80531 86.84896 38104 ft 454 kts 305°
2026-05-05 00:53 44.84483 86.78022 38101 ft 454 kts 305°
2026-05-05 00:53 44.88412 86.71055 38099 ft 454 kts 304°
2026-05-05 00:54 44.92320 86.64039 38096 ft 455 kts 304°
2026-05-05 00:54 44.96237 86.57007 38096 ft 455 kts 304°
2026-05-05 00:55 45.00154 86.49979 38094 ft 456 kts 304°
2026-05-05 00:55 45.04075 86.42934 38088 ft 456 kts 305°
2026-05-05 00:56 45.07988 86.35885 38085 ft 455 kts 305°
2026-05-05 00:56 45.11870 86.28873 38082 ft 455 kts 305°
2026-05-05 00:57 45.15772 86.21809 38084 ft 455 kts 305°
2026-05-05 00:57 45.19668 86.14737 38076 ft 455 kts 305°
2026-05-05 00:58 45.23561 86.07652 38076 ft 455 kts 305°
2026-05-05 00:58 45.27451 86.00553 38073 ft 455 kts 305°
2026-05-05 00:59 45.31318 85.93481 38071 ft 455 kts 305°
2026-05-05 00:59 45.35201 85.86361 38072 ft 456 kts 305°
2026-05-05 01:00 45.39079 85.79232 38073 ft 456 kts 305°
2026-05-05 01:00 45.42954 85.72092 38070 ft 456 kts 305°
2026-05-05 01:01 45.46820 85.64950 38066 ft 455 kts 305°
2026-05-05 01:01 45.50660 85.57836 38066 ft 455 kts 305°
2026-05-05 01:02 45.54513 85.50683 38066 ft 455 kts 305°
2026-05-05 01:02 45.58364 85.43515 38069 ft 454 kts 305°
2026-05-05 01:03 45.62203 85.36351 38068 ft 454 kts 305°
2026-05-05 01:03 45.66045 85.29162 38067 ft 454 kts 305°
2026-05-05 01:04 45.69876 85.21976 38068 ft 454 kts 305°
2026-05-05 01:04 45.75620 85.11251 38076 ft 455 kts 306°
2026-05-05 01:05 45.79482 85.04029 38072 ft 457 kts 306°
2026-05-05 01:05 45.83346 84.96780 38088 ft 459 kts 306°
2026-05-05 01:06 45.87232 84.89467 38088 ft 461 kts 306°
2026-05-05 01:06 45.91125 84.82123 38101 ft 463 kts 306°
2026-05-05 01:07 45.95006 84.74783 38111 ft 465 kts 306°
2026-05-05 01:07 45.98921 84.67359 38116 ft 466 kts 306°
2026-05-05 01:08 46.02837 84.59913 38123 ft 467 kts 306°
2026-05-05 01:08 46.06758 84.52438 38134 ft 467 kts 306°
2026-05-05 01:09 46.10669 84.44964 38132 ft 467 kts 306°
2026-05-05 01:09 46.14563 84.37501 38148 ft 465 kts 306°
2026-05-05 01:10 46.18413 84.30102 38159 ft 463 kts 306°
2026-05-05 01:10 46.22261 84.22690 38179 ft 460 kts 306°
2026-05-05 01:11 46.26087 84.15300 38187 ft 457 kts 306°
2026-05-05 01:11 46.29241 84.09190 38191 ft 455 kts 306°
2026-05-05 01:12 46.32995 84.01847 38197 ft 453 kts 306°
2026-05-05 01:12 46.36722 83.94532 38203 ft 451 kts 306°
2026-05-05 01:13 46.40439 83.87230 38204 ft 449 kts 306°
2026-05-05 01:13 46.44141 83.79942 38215 ft 449 kts 306°
2026-05-05 01:14 46.47821 83.72680 38212 ft 449 kts 306°
2026-05-05 01:14 46.51515 83.65370 38216 ft 449 kts 306°
2026-05-05 01:15 46.55212 83.58034 38216 ft 450 kts 306°
2026-05-05 01:15 46.58910 83.50679 38216 ft 451 kts 306°
2026-05-05 01:16 46.62605 83.43308 38220 ft 452 kts 306°
2026-05-05 01:16 46.66292 83.35937 38466 ft 453 kts 306°
2026-05-05 01:17 46.68076 83.32160 38698 ft 453 kts 302°
2026-05-05 01:17 46.69759 83.28284 38872 ft 453 kts 301°
2026-05-05 01:17 46.71399 83.24367 39016 ft 454 kts 301°
2026-05-05 01:17 46.73036 83.20432 39154 ft 454 kts 301°
2026-05-05 01:18 46.74679 83.16511 39301 ft 455 kts 301°
2026-05-05 01:18 46.76344 83.12577 39424 ft 455 kts 301°
2026-05-05 01:18 46.78018 83.08651 39568 ft 455 kts 301°
2026-05-05 01:18 46.79694 83.04740 39702 ft 456 kts 302°
2026-05-05 01:19 46.81381 83.00809 39831 ft 456 kts 302°
2026-05-05 01:19 46.83066 82.96882 39966 ft 457 kts 302°
2026-05-05 01:19 46.84695 82.92904 40076 ft 457 kts 297°
2026-05-05 01:19 46.86017 82.88661 40118 ft 459 kts 290°
2026-05-05 01:20 46.87501 82.79659 40129 ft 460 kts 281°
2026-05-05 01:20 46.88476 82.70405 40120 ft 461 kts 279°
2026-05-05 01:21 46.89375 82.61103 40122 ft 462 kts 279°
2026-05-05 01:21 46.90287 82.51801 40118 ft 462 kts 279°
2026-05-05 01:22 46.91214 82.42483 40125 ft 463 kts 279°
2026-05-05 01:22 46.92139 82.33165 40131 ft 464 kts 279°
2026-05-05 01:23 46.93059 82.23813 40123 ft 464 kts 279°
2026-05-05 01:23 46.93964 82.14531 40123 ft 465 kts 279°
2026-05-05 01:24 46.94869 82.05162 40121 ft 465 kts 279°
2026-05-05 01:24 46.95766 81.95783 40132 ft 465 kts 279°
2026-05-05 01:25 46.96660 81.86392 40130 ft 466 kts 279°
2026-05-05 01:25 46.97534 81.76989 40126 ft 466 kts 279°
2026-05-05 01:26 46.98399 81.67582 40128 ft 466 kts 279°
2026-05-05 01:26 46.99253 81.58231 40118 ft 466 kts 279°
2026-05-05 01:27 47.00105 81.48829 40127 ft 466 kts 279°
2026-05-05 01:27 47.00951 81.39418 40128 ft 466 kts 279°
2026-05-05 01:28 47.01788 81.30012 40129 ft 465 kts 279°
2026-05-05 01:28 47.02617 81.20613 40132 ft 465 kts 279°
2026-05-05 01:29 47.03437 81.11215 40132 ft 465 kts 279°
2026-05-05 01:29 47.04246 81.01861 40131 ft 464 kts 279°
2026-05-05 01:30 47.05055 80.92478 40130 ft 464 kts 279°
2026-05-05 01:30 47.05848 80.83100 40134 ft 463 kts 279°
2026-05-05 01:31 47.06634 80.73716 40138 ft 463 kts 279°
2026-05-05 01:31 47.07412 80.64348 40138 ft 463 kts 279°
2026-05-05 01:32 47.08183 80.54976 40137 ft 462 kts 279°
2026-05-05 01:32 47.08941 80.45675 40141 ft 462 kts 278°
2026-05-05 01:33 47.09696 80.36312 40147 ft 462 kts 278°
2026-05-05 01:33 47.10443 80.26947 40152 ft 462 kts 278°
2026-05-05 01:34 47.11182 80.17593 40157 ft 461 kts 278°
2026-05-05 01:34 47.11913 80.08243 40162 ft 461 kts 278°
2026-05-05 01:35 47.12638 79.98864 40168 ft 461 kts 278°
2026-05-05 01:35 47.13348 79.89571 40171 ft 461 kts 278°
2026-05-05 01:36 47.14068 79.80216 40177 ft 461 kts 278°
2026-05-05 01:36 47.14792 79.70858 40179 ft 461 kts 278°
2026-05-05 01:37 47.15508 79.61493 40182 ft 461 kts 278°
2026-05-05 01:37 47.16216 79.52119 40182 ft 461 kts 278°
2026-05-05 01:38 47.16916 79.42751 40184 ft 461 kts 278°
2026-05-05 01:38 47.17604 79.33435 40187 ft 461 kts 278°
2026-05-05 01:39 47.18289 79.24052 40187 ft 462 kts 278°
2026-05-05 01:39 47.18967 79.14664 40186 ft 462 kts 278°
2026-05-05 01:40 47.19630 79.05279 40190 ft 462 kts 278°
2026-05-05 01:40 47.20265 78.95881 40190 ft 462 kts 277°
2026-05-05 01:41 47.20895 78.86487 40189 ft 462 kts 277°
2026-05-05 01:41 47.21517 78.77140 40190 ft 462 kts 277°
2026-05-05 01:42 47.22138 78.67726 40192 ft 462 kts 277°
2026-05-05 01:42 47.22751 78.58314 40192 ft 462 kts 277°
2026-05-05 01:43 47.23356 78.48895 40194 ft 462 kts 277°
2026-05-05 01:43 47.23950 78.39536 40196 ft 462 kts 277°
2026-05-05 01:44 47.24540 78.30114 40198 ft 462 kts 277°
2026-05-05 01:44 47.25121 78.20699 40198 ft 462 kts 277°
2026-05-05 01:45 47.25695 78.11285 40197 ft 462 kts 277°
2026-05-05 01:45 47.26262 78.01856 40202 ft 462 kts 277°
2026-05-05 01:46 47.26816 77.92498 40206 ft 462 kts 277°
2026-05-05 01:46 47.27367 77.83076 40207 ft 462 kts 277°
2026-05-05 01:47 47.27910 77.73655 40211 ft 462 kts 276°
2026-05-05 01:47 47.28446 77.64217 40212 ft 462 kts 276°
2026-05-05 01:48 47.28973 77.54785 40215 ft 462 kts 276°
2026-05-05 01:48 47.29494 77.45338 40219 ft 462 kts 276°
2026-05-05 01:49 47.30003 77.35971 40223 ft 462 kts 276°
2026-05-05 01:49 47.30507 77.26529 40225 ft 462 kts 276°
2026-05-05 01:50 47.31004 77.17086 40222 ft 462 kts 276°
2026-05-05 01:50 47.31495 77.07631 40223 ft 462 kts 276°
2026-05-05 01:51 47.32155 76.98235 40222 ft 461 kts 280°
2026-05-05 01:51 47.33192 76.88893 40220 ft 461 kts 281°
2026-05-05 01:52 47.34230 76.79569 40220 ft 461 kts 280°
2026-05-05 01:52 47.35192 76.70279 40223 ft 461 kts 280°
2026-05-05 01:53 47.36122 76.60913 40225 ft 461 kts 279°
2026-05-05 01:53 47.37038 76.51551 40223 ft 462 kts 279°
2026-05-05 01:54 47.37951 76.42172 40228 ft 462 kts 279°
2026-05-05 01:54 47.38856 76.32805 40222 ft 462 kts 279°
2026-05-05 01:55 47.39757 76.23403 40217 ft 462 kts 279°
2026-05-05 01:55 47.40643 76.14088 40220 ft 462 kts 279°
2026-05-05 01:56 47.41527 76.04693 40222 ft 462 kts 279°
2026-05-05 01:56 47.42403 75.95308 40224 ft 462 kts 279°
2026-05-05 01:57 47.43273 75.85897 40215 ft 462 kts 279°
2026-05-05 01:57 47.44133 75.76508 40223 ft 462 kts 279°
2026-05-05 01:58 47.44981 75.67162 40213 ft 462 kts 279°
2026-05-05 01:58 47.45827 75.57760 40228 ft 461 kts 279°
2026-05-05 01:59 47.46664 75.48361 40215 ft 461 kts 279°
2026-05-05 01:59 47.47494 75.38951 40218 ft 462 kts 279°
2026-05-05 02:00 47.48317 75.29532 40221 ft 462 kts 278°
2026-05-05 02:00 47.49128 75.20166 40227 ft 462 kts 278°
2026-05-05 02:01 47.49935 75.10746 40223 ft 462 kts 278°
2026-05-05 02:01 47.50736 75.01311 40216 ft 462 kts 278°
2026-05-05 02:02 47.51527 74.91886 40214 ft 462 kts 278°
2026-05-05 02:02 47.52306 74.82527 40219 ft 462 kts 278°
2026-05-05 02:03 47.53082 74.73092 40219 ft 462 kts 278°
2026-05-05 02:03 47.53851 74.63662 40213 ft 462 kts 278°
2026-05-05 02:04 47.54612 74.54216 40207 ft 462 kts 278°
2026-05-05 02:04 47.55362 74.44824 40218 ft 462 kts 278°
2026-05-05 02:05 47.56107 74.35389 40212 ft 462 kts 278°
2026-05-05 02:05 47.56846 74.25930 40211 ft 463 kts 278°
2026-05-05 02:06 47.57577 74.16462 40207 ft 463 kts 278°
2026-05-05 02:06 47.58301 74.06984 40212 ft 463 kts 277°
2026-05-05 02:07 47.59018 73.97497 40203 ft 463 kts 277°
2026-05-05 02:07 47.59722 73.88084 40206 ft 463 kts 277°
2026-05-05 02:08 47.60424 73.78584 40207 ft 464 kts 277°
2026-05-05 02:08 47.61118 73.69082 40208 ft 464 kts 277°
2026-05-05 02:09 47.61804 73.59578 40205 ft 464 kts 277°
2026-05-05 02:09 47.62483 73.50066 40203 ft 464 kts 277°
2026-05-05 02:10 47.63154 73.40544 40202 ft 464 kts 277°
2026-05-05 02:10 47.63813 73.31082 40197 ft 464 kts 277°
2026-05-05 02:11 47.64469 73.21557 40196 ft 465 kts 277°
2026-05-05 02:11 47.65117 73.12017 40193 ft 465 kts 277°
2026-05-05 02:12 47.66076 72.97692 40191 ft 465 kts 276°
2026-05-05 02:13 47.66701 72.88201 40187 ft 465 kts 276°
2026-05-05 02:13 47.67323 72.78638 40184 ft 465 kts 276°
2026-05-05 02:14 47.67937 72.69070 40181 ft 466 kts 276°
2026-05-05 02:14 47.68544 72.59489 40182 ft 466 kts 276°
2026-05-05 02:15 47.69142 72.49916 40180 ft 466 kts 276°
2026-05-05 02:15 47.69728 72.40416 40179 ft 466 kts 276°
2026-05-05 02:16 47.70311 72.30827 40172 ft 466 kts 276°
2026-05-05 02:16 47.70885 72.21250 40172 ft 466 kts 276°
2026-05-05 02:17 47.71452 72.11660 40167 ft 466 kts 276°
2026-05-05 02:17 47.72011 72.02059 40165 ft 466 kts 275°
2026-05-05 02:18 47.72562 71.92469 40164 ft 466 kts 275°
2026-05-05 02:18 47.73103 71.82918 40159 ft 467 kts 275°
2026-05-05 02:19 47.73571 71.73307 40158 ft 467 kts 274°
2026-05-05 02:19 47.73944 71.63683 40156 ft 467 kts 274°
2026-05-05 02:20 47.74315 71.54057 40150 ft 467 kts 274°
2026-05-05 02:20 47.74694 71.44419 40148 ft 467 kts 274°
2026-05-05 02:21 47.75072 71.34785 40149 ft 467 kts 274°
2026-05-05 02:21 47.75443 71.25155 40144 ft 467 kts 274°
2026-05-05 02:22 47.75803 71.15589 40147 ft 467 kts 274°
2026-05-05 02:22 47.76156 71.05952 40146 ft 467 kts 273°
2026-05-05 02:23 47.76502 70.96317 40142 ft 467 kts 273°
2026-05-05 02:23 47.76839 70.86684 40146 ft 467 kts 273°
2026-05-05 02:24 47.77113 70.78671 40140 ft 467 kts 273°
2026-05-05 02:24 47.77436 70.69036 40139 ft 467 kts 273°
2026-05-05 02:25 47.77753 70.59404 40137 ft 467 kts 273°
2026-05-05 02:25 47.78107 70.48191 40134 ft 467 kts 272°
2026-05-05 02:26 47.78351 70.40119 40134 ft 467 kts 272°
2026-05-05 02:26 47.78638 70.30480 40130 ft 467 kts 272°
2026-05-05 02:27 47.78916 70.20905 40129 ft 467 kts 272°
2026-05-05 02:27 47.79188 70.11267 40124 ft 466 kts 272°
2026-05-05 02:28 47.79453 70.01624 40124 ft 466 kts 272°
2026-05-05 02:28 47.79708 69.91990 40122 ft 466 kts 272°
2026-05-05 02:29 47.79956 69.82346 40122 ft 466 kts 272°
2026-05-05 02:29 47.80194 69.72774 40121 ft 466 kts 272°
2026-05-05 02:30 47.80426 69.63143 40114 ft 466 kts 272°
2026-05-05 02:30 47.80649 69.53514 40118 ft 466 kts 271°
2026-05-05 02:31 47.80864 69.43883 40113 ft 466 kts 271°
2026-05-05 02:31 47.81071 69.34264 40111 ft 465 kts 271°
2026-05-05 02:32 47.81271 69.24618 40112 ft 465 kts 271°
2026-05-05 02:32 47.81461 69.15001 40109 ft 465 kts 271°
2026-05-05 02:33 47.81643 69.05434 40110 ft 465 kts 271°
2026-05-05 02:33 47.81818 68.95808 40104 ft 465 kts 271°
2026-05-05 02:34 47.81985 68.86188 40106 ft 465 kts 271°
2026-05-05 02:34 47.81606 68.76585 40103 ft 465 kts 263°
2026-05-05 02:35 47.80790 68.67045 40097 ft 465 kts 262°
2026-05-05 02:35 47.79903 68.57519 40099 ft 465 kts 262°
2026-05-05 02:36 47.79017 68.48048 40093 ft 465 kts 262°
2026-05-05 02:36 47.78130 68.38531 40093 ft 465 kts 262°
2026-05-05 02:37 47.77239 68.29016 40090 ft 465 kts 262°
2026-05-05 02:37 47.76339 68.19477 40085 ft 465 kts 262°
2026-05-05 02:38 47.75432 68.09961 40081 ft 465 kts 262°
2026-05-05 02:38 47.74516 68.00444 40078 ft 465 kts 262°
2026-05-05 02:39 47.73592 67.90925 40074 ft 465 kts 262°
2026-05-05 02:39 47.72660 67.81407 40076 ft 465 kts 262°
2026-05-05 02:40 47.71677 67.71911 40075 ft 465 kts 259°
2026-05-05 02:40 47.70291 67.62595 40075 ft 465 kts 257°
2026-05-05 02:41 47.68787 67.53255 40076 ft 465 kts 257°
2026-05-05 02:41 47.67329 67.43891 40075 ft 465 kts 257°
2026-05-05 02:42 47.65908 67.34532 40072 ft 465 kts 257°
2026-05-05 02:42 47.64492 67.25185 40073 ft 465 kts 257°
2026-05-05 02:43 47.63060 67.15795 40071 ft 465 kts 257°
2026-05-05 02:43 47.61622 67.06442 40064 ft 465 kts 257°
2026-05-05 02:44 47.60177 66.97095 40063 ft 465 kts 257°
2026-05-05 02:44 47.58733 66.87815 40063 ft 465 kts 257°
2026-05-05 02:45 47.57269 66.78465 40060 ft 465 kts 257°
2026-05-05 02:45 47.55802 66.69138 40060 ft 465 kts 257°
2026-05-05 02:46 47.54283 66.59832 40058 ft 465 kts 256°
2026-05-05 02:46 47.52733 66.50538 40054 ft 465 kts 256°
2026-05-05 02:47 47.51181 66.41242 40050 ft 465 kts 256°
2026-05-05 02:47 47.49632 66.31966 40045 ft 465 kts 256°
2026-05-05 02:48 47.48086 66.22748 40040 ft 465 kts 256°
2026-05-05 02:48 47.46524 66.13479 40040 ft 464 kts 256°
2026-05-05 02:49 47.44952 66.04211 40033 ft 464 kts 256°
2026-05-05 02:49 47.43377 65.94967 40035 ft 464 kts 256°
2026-05-05 02:50 47.41804 65.85790 40030 ft 463 kts 256°
2026-05-05 02:50 47.40250 65.76567 40029 ft 463 kts 257°
2026-05-05 02:51 47.38736 65.67334 40026 ft 462 kts 257°
2026-05-05 02:51 47.37216 65.58114 40025 ft 462 kts 256°
2026-05-05 02:52 47.35680 65.48900 40019 ft 462 kts 256°
2026-05-05 02:52 47.34136 65.39705 40018 ft 462 kts 256°
2026-05-05 02:53 47.32584 65.30522 40014 ft 462 kts 256°
2026-05-05 02:53 47.31037 65.21409 40016 ft 461 kts 256°
2026-05-05 02:54 47.29473 65.12244 40010 ft 461 kts 256°
2026-05-05 02:54 47.27902 65.03088 40006 ft 461 kts 256°
2026-05-05 02:55 47.26327 64.93931 40004 ft 461 kts 256°
2026-05-05 02:55 47.24739 64.84798 40005 ft 461 kts 256°
2026-05-05 02:56 47.23141 64.75656 39998 ft 461 kts 256°
2026-05-05 02:56 47.21539 64.66529 39998 ft 461 kts 256°
2026-05-05 02:57 47.19941 64.57470 39995 ft 461 kts 256°
2026-05-05 02:57 47.18325 64.48353 39996 ft 461 kts 256°
2026-05-05 02:58 47.16707 64.39224 39991 ft 461 kts 256°
2026-05-05 02:58 47.15088 64.30120 39992 ft 461 kts 256°
2026-05-05 02:59 47.13458 64.21006 39994 ft 461 kts 256°
2026-05-05 02:59 47.11829 64.11954 39989 ft 462 kts 255°
2026-05-05 03:00 47.10180 64.02837 39994 ft 462 kts 255°
2026-05-05 03:00 47.08526 63.93740 39987 ft 462 kts 255°
2026-05-05 03:01 47.06863 63.84637 39985 ft 462 kts 255°
2026-05-05 03:01 47.05191 63.75531 39985 ft 462 kts 255°
2026-05-05 03:02 47.03523 63.66493 39984 ft 462 kts 255°
2026-05-05 03:02 47.01838 63.57410 39983 ft 462 kts 255°
2026-05-05 03:03 47.00150 63.48335 39982 ft 462 kts 255°
2026-05-05 03:03 46.98451 63.39260 39982 ft 462 kts 255°
2026-05-05 03:04 46.96742 63.30182 39980 ft 462 kts 255°
2026-05-05 03:04 46.95029 63.21124 39975 ft 462 kts 255°
2026-05-05 03:05 46.93307 63.12061 39976 ft 462 kts 255°
2026-05-05 03:05 46.91590 63.03069 39975 ft 462 kts 254°
2026-05-05 03:06 46.89859 62.94038 39975 ft 462 kts 254°
2026-05-05 03:06 46.88116 62.84992 39974 ft 462 kts 254°
2026-05-05 03:07 46.86365 62.75952 39975 ft 462 kts 254°
2026-05-05 03:07 46.84609 62.66922 39970 ft 462 kts 254°
2026-05-05 03:08 46.82849 62.57918 39972 ft 462 kts 254°
2026-05-05 03:08 46.81083 62.48893 39966 ft 461 kts 254°
2026-05-05 03:09 46.79322 62.39974 39967 ft 461 kts 254°
2026-05-05 03:09 46.77535 62.30963 39964 ft 461 kts 254°
2026-05-05 03:10 46.75749 62.21987 39966 ft 460 kts 254°
2026-05-05 03:10 46.73957 62.13024 39966 ft 460 kts 254°
2026-05-05 03:11 46.72161 62.04080 39963 ft 460 kts 254°
2026-05-05 03:11 46.70359 61.95149 39962 ft 459 kts 254°
2026-05-05 03:12 46.68566 61.86296 39964 ft 459 kts 253°
2026-05-05 03:12 46.66753 61.77390 39964 ft 458 kts 253°
2026-05-05 03:13 46.64934 61.68494 39960 ft 458 kts 253°
2026-05-05 03:13 46.63111 61.59618 39960 ft 458 kts 253°
2026-05-05 03:14 46.61281 61.50745 39957 ft 458 kts 253°
2026-05-05 03:14 46.59446 61.41885 39955 ft 457 kts 253°
2026-05-05 03:15 46.57617 61.33097 39954 ft 457 kts 253°
2026-05-05 03:15 46.55768 61.24252 39957 ft 457 kts 253°
2026-05-05 03:16 46.53916 61.15428 39953 ft 457 kts 253°
2026-05-05 03:16 46.52053 61.06593 39953 ft 457 kts 253°
2026-05-05 03:17 46.50186 60.97774 39954 ft 457 kts 253°
2026-05-05 03:17 46.48326 60.89029 39952 ft 456 kts 253°
2026-05-05 03:18 46.46448 60.80236 39950 ft 456 kts 253°
2026-05-05 03:18 46.44563 60.71446 39952 ft 456 kts 253°
2026-05-05 03:19 46.41724 60.58281 39943 ft 456 kts 252°
2026-05-05 03:19 46.39824 60.49515 39944 ft 456 kts 252°
2026-05-05 03:20 46.37918 60.40759 39942 ft 456 kts 252°
2026-05-05 03:20 46.36008 60.32022 39942 ft 455 kts 252°
2026-05-05 03:21 46.34090 60.23284 39940 ft 455 kts 252°
2026-05-05 03:21 46.32180 60.14617 39943 ft 455 kts 252°
2026-05-05 03:22 46.30247 60.05889 39938 ft 455 kts 252°
2026-05-05 03:22 46.28314 59.97191 39938 ft 455 kts 252°
2026-05-05 03:23 46.26372 59.88489 39941 ft 454 kts 252°
2026-05-05 03:23 46.24428 59.79814 39937 ft 454 kts 252°
2026-05-05 03:24 46.22475 59.71133 39938 ft 454 kts 252°
2026-05-05 03:24 46.20524 59.62535 39938 ft 454 kts 252°
2026-05-05 03:25 46.18549 59.53897 39936 ft 454 kts 251°
2026-05-05 03:25 46.16898 59.46701 39936 ft 454 kts 251°
2026-05-05 03:26 46.14912 59.38069 39935 ft 453 kts 251°
2026-05-05 03:26 46.12919 59.29440 39934 ft 454 kts 251°
2026-05-05 03:27 46.10918 59.20808 39937 ft 454 kts 251°
2026-05-05 03:27 46.08912 59.12189 39934 ft 454 kts 251°
2026-05-05 03:28 46.06895 59.03559 39934 ft 455 kts 251°
2026-05-05 03:28 46.04873 58.94937 39931 ft 455 kts 251°
2026-05-05 03:29 46.02841 58.86310 39928 ft 455 kts 251°
2026-05-05 03:29 46.00803 58.77692 39925 ft 456 kts 251°
2026-05-05 03:30 45.98767 58.69116 39922 ft 456 kts 251°
2026-05-05 03:30 45.96714 58.60500 39923 ft 456 kts 251°
2026-05-05 03:31 45.94651 58.51876 39920 ft 456 kts 251°
2026-05-05 03:31 45.92582 58.43262 39921 ft 455 kts 251°
2026-05-05 03:32 45.90525 58.34729 39912 ft 455 kts 251°
2026-05-05 03:32 45.88440 58.26114 39910 ft 454 kts 251°
2026-05-05 03:33 45.86380 58.17632 39910 ft 453 kts 251°
2026-05-05 03:33 45.84301 58.09108 39907 ft 452 kts 251°
2026-05-05 03:34 45.82219 58.00600 39900 ft 451 kts 251°
2026-05-05 03:34 45.80135 57.92121 39895 ft 451 kts 250°
2026-05-05 03:35 45.78063 57.83716 39894 ft 450 kts 250°
2026-05-05 03:35 45.75975 57.75283 39891 ft 449 kts 250°
2026-05-05 03:36 45.73879 57.66848 39888 ft 449 kts 250°
2026-05-05 03:36 45.71778 57.58420 39888 ft 449 kts 250°
2026-05-05 03:37 45.69672 57.50009 39879 ft 450 kts 250°
2026-05-05 03:37 45.67556 57.41590 39881 ft 450 kts 250°
2026-05-05 03:38 45.65447 57.33230 39882 ft 450 kts 250°
2026-05-05 03:38 45.63318 57.24820 39877 ft 450 kts 250°
2026-05-05 03:39 45.61183 57.16412 39876 ft 450 kts 250°
2026-05-05 03:39 45.59041 57.08012 39876 ft 450 kts 249°
2026-05-05 03:40 45.56893 56.99618 39870 ft 450 kts 249°
2026-05-05 03:40 45.54737 56.91225 39870 ft 450 kts 249°
2026-05-05 03:41 45.52576 56.82841 39868 ft 450 kts 249°
2026-05-05 03:41 45.50409 56.74465 39865 ft 450 kts 249°
2026-05-05 03:42 45.48251 56.66150 39866 ft 450 kts 249°
2026-05-05 03:42 45.46068 56.57774 39865 ft 450 kts 249°
2026-05-05 03:43 45.43881 56.49410 39863 ft 450 kts 249°
2026-05-05 03:43 45.41695 56.41077 39862 ft 450 kts 249°
2026-05-05 03:44 45.39514 56.32795 39859 ft 450 kts 249°
2026-05-05 03:44 45.37313 56.24468 39856 ft 450 kts 249°
2026-05-05 03:45 45.35108 56.16152 39856 ft 449 kts 249°
2026-05-05 03:45 45.32897 56.07845 39856 ft 449 kts 249°
2026-05-05 03:46 45.30679 55.99541 39856 ft 449 kts 249°
2026-05-05 03:46 45.28460 55.91261 39855 ft 449 kts 249°
2026-05-05 03:47 45.26234 55.82982 39852 ft 448 kts 248°
2026-05-05 03:47 45.24019 55.74776 39854 ft 448 kts 248°
2026-05-05 03:48 45.21786 55.66530 39856 ft 448 kts 248°
2026-05-05 03:48 45.19544 55.58277 39853 ft 448 kts 248°
2026-05-05 03:49 45.17302 55.50052 39854 ft 448 kts 248°
2026-05-05 03:49 45.15061 55.41863 39853 ft 447 kts 248°
2026-05-05 03:50 45.12805 55.33645 39855 ft 447 kts 248°
2026-05-05 03:50 45.10542 55.25435 39857 ft 447 kts 248°
2026-05-05 03:51 45.07590 55.17717 39857 ft 447 kts 233°
2026-05-05 03:51 45.03358 55.11281 39860 ft 448 kts 225°
2026-05-05 03:52 44.98799 55.05360 39858 ft 448 kts 223°
2026-05-05 03:52 44.94167 54.99461 39860 ft 448 kts 223°
2026-05-05 03:53 44.89545 54.93540 39860 ft 448 kts 224°
2026-05-05 03:53 44.84938 54.87611 39863 ft 448 kts 224°
2026-05-05 03:54 44.80328 54.81679 39865 ft 448 kts 224°
2026-05-05 03:54 44.75723 54.75767 39863 ft 448 kts 224°
2026-05-05 03:55 44.71110 54.69861 39868 ft 448 kts 224°
2026-05-05 03:55 44.66622 54.63868 39868 ft 447 kts 230°
2026-05-05 03:56 44.62848 54.56926 39867 ft 446 kts 235°
2026-05-05 03:56 44.59288 54.49780 39870 ft 447 kts 236°
2026-05-05 03:57 44.55756 54.42620 39870 ft 446 kts 236°
2026-05-05 03:57 44.52204 54.35479 39872 ft 446 kts 235°
2026-05-05 03:58 44.48635 54.28355 39868 ft 446 kts 235°
2026-05-05 03:58 44.45064 54.21250 39870 ft 446 kts 235°
2026-05-05 03:59 44.41508 54.14194 39876 ft 446 kts 235°
2026-05-05 03:59 44.37927 54.07103 39874 ft 446 kts 235°
2026-05-05 04:00 44.34339 54.00013 39876 ft 446 kts 235°
2026-05-05 04:00 44.30754 53.92949 39874 ft 446 kts 235°
2026-05-05 04:01 44.27164 53.85891 39874 ft 446 kts 235°
2026-05-05 04:01 44.23597 53.78895 39872 ft 445 kts 235°
2026-05-05 04:02 44.20008 53.71874 39875 ft 445 kts 234°
2026-05-05 04:02 44.16410 53.64843 39878 ft 444 kts 235°
2026-05-05 04:03 44.12824 53.57837 39877 ft 444 kts 234°
2026-05-05 04:03 44.09223 53.50860 39875 ft 444 kts 234°
2026-05-05 04:04 44.05628 53.43907 39873 ft 443 kts 234°
2026-05-05 04:04 44.02051 53.36995 39873 ft 443 kts 234°
2026-05-05 04:05 43.98456 53.30061 39873 ft 442 kts 234°
2026-05-05 04:05 43.94853 53.23129 39872 ft 442 kts 234°
2026-05-05 04:06 43.91259 53.16229 39873 ft 441 kts 234°
2026-05-05 04:06 43.87682 53.09380 39873 ft 441 kts 234°
2026-05-05 04:07 43.84076 53.02495 39876 ft 441 kts 234°
2026-05-05 04:07 43.80463 52.95614 39876 ft 441 kts 234°
2026-05-05 04:08 43.76848 52.88745 39881 ft 441 kts 234°
2026-05-05 04:08 43.73227 52.81880 39879 ft 442 kts 234°
2026-05-05 04:09 43.69627 52.75071 39877 ft 442 kts 234°
2026-05-05 04:09 43.65993 52.68213 39881 ft 442 kts 233°
2026-05-05 04:10 43.62350 52.61358 39881 ft 443 kts 233°
2026-05-05 04:10 43.58691 52.54521 39882 ft 443 kts 233°
2026-05-05 04:11 43.55028 52.47693 39882 ft 443 kts 233°
2026-05-05 04:11 43.51361 52.40867 39885 ft 443 kts 233°
2026-05-05 04:12 43.47689 52.34043 39887 ft 443 kts 233°
2026-05-05 04:12 43.44012 52.27226 39887 ft 443 kts 233°
2026-05-05 04:13 43.40357 52.20466 39887 ft 443 kts 233°
2026-05-05 04:13 43.36676 52.13674 39886 ft 443 kts 233°
2026-05-05 04:14 43.32989 52.06886 39887 ft 443 kts 233°
2026-05-05 04:14 43.29303 52.00115 39890 ft 443 kts 233°
2026-05-05 04:15 43.25612 51.93350 39889 ft 443 kts 233°
2026-05-05 04:15 43.21938 51.86633 39889 ft 443 kts 233°
2026-05-05 04:16 43.18240 51.79887 39895 ft 443 kts 233°
2026-05-05 04:16 43.14538 51.73149 39893 ft 443 kts 233°
2026-05-05 04:17 43.10834 51.66423 39895 ft 443 kts 233°
2026-05-05 04:17 43.07116 51.59687 39894 ft 443 kts 233°
2026-05-05 04:18 43.03392 51.52955 39893 ft 444 kts 233°
2026-05-05 04:18 42.99662 51.46227 39897 ft 444 kts 233°
2026-05-05 04:19 42.95931 51.39513 39899 ft 444 kts 233°
2026-05-05 04:19 42.92185 51.32788 39905 ft 445 kts 232°
2026-05-05 04:20 42.88433 51.26067 39907 ft 445 kts 232°
2026-05-05 04:20 42.84674 51.19348 39910 ft 446 kts 232°
2026-05-05 04:21 42.80910 51.12637 39910 ft 446 kts 232°
2026-05-05 04:21 42.77136 51.05922 39914 ft 446 kts 232°
2026-05-05 04:22 42.73387 50.99267 39913 ft 446 kts 232°
2026-05-05 04:22 42.69603 50.92565 39915 ft 447 kts 232°
2026-05-05 04:23 42.65820 50.85878 39916 ft 446 kts 232°
2026-05-05 04:23 42.62033 50.79201 39921 ft 446 kts 232°
2026-05-05 04:24 42.58246 50.72538 39920 ft 445 kts 232°
2026-05-05 04:25 42.52566 50.62572 39922 ft 445 kts 232°
2026-05-05 04:25 42.48804 50.55991 39922 ft 444 kts 232°
2026-05-05 04:26 42.45015 50.49377 39924 ft 444 kts 231°
2026-05-05 04:26 42.41272 50.42730 39925 ft 444 kts 233°
2026-05-05 04:27 42.37705 50.35910 39925 ft 444 kts 234°
2026-05-05 04:27 42.34161 50.29090 39928 ft 444 kts 234°
2026-05-05 04:28 42.30581 50.22296 39926 ft 444 kts 233°
2026-05-05 04:28 42.26981 50.15527 39931 ft 443 kts 233°
2026-05-05 04:29 42.23402 50.08821 39931 ft 443 kts 233°
2026-05-05 04:29 42.19794 50.02071 39929 ft 443 kts 233°
2026-05-05 04:30 42.16187 49.95336 39930 ft 443 kts 233°
2026-05-05 04:30 42.12577 49.88610 39932 ft 443 kts 233°
2026-05-05 04:31 42.08961 49.81889 39932 ft 443 kts 233°
2026-05-05 04:31 42.05343 49.75178 39935 ft 443 kts 233°
2026-05-05 04:32 42.02332 49.69604 39937 ft 443 kts 233°
2026-05-05 04:32 41.98708 49.62910 39939 ft 443 kts 233°
2026-05-05 04:33 41.94486 49.55130 39941 ft 443 kts 233°
2026-05-05 04:33 41.91447 49.49542 39942 ft 443 kts 233°
2026-05-05 04:34 41.87809 49.42866 39941 ft 442 kts 233°
2026-05-05 04:34 41.84198 49.36253 39945 ft 442 kts 233°
2026-05-05 04:35 41.80564 49.29611 39946 ft 442 kts 233°
2026-05-05 04:35 41.77089 49.22796 39947 ft 443 kts 236°
2026-05-05 04:36 41.73728 49.15889 39948 ft 443 kts 236°
2026-05-05 04:36 41.70359 49.09045 39948 ft 436 kts 235°
2026-05-05 04:37 41.67006 49.02332 39949 ft 433 kts 234°
2026-05-05 04:37 41.63658 48.95655 39946 ft 432 kts 234°
2026-05-05 04:38 41.60330 48.89032 39948 ft 432 kts 234°
2026-05-05 04:38 41.56977 48.82375 39954 ft 431 kts 234°
2026-05-05 04:39 41.53626 48.75736 39952 ft 431 kts 234°
2026-05-05 04:39 41.50209 48.69158 39955 ft 431 kts 232°
2026-05-05 04:40 41.46591 48.62770 39953 ft 431 kts 231°
2026-05-05 04:40 41.42959 48.56414 39949 ft 431 kts 232°
2026-05-05 04:41 41.39383 48.49998 39944 ft 431 kts 232°
2026-05-05 04:41 41.35896 48.43565 39940 ft 432 kts 233°
2026-05-05 04:42 41.32378 48.37077 39929 ft 432 kts 233°
2026-05-05 04:42 41.28854 48.30620 39927 ft 432 kts 232°
2026-05-05 04:43 41.25315 48.24158 39920 ft 432 kts 232°
2026-05-05 04:43 41.21769 48.17706 39913 ft 433 kts 232°
2026-05-05 04:44 41.18211 48.11246 39913 ft 434 kts 233°
2026-05-05 04:44 41.14819 48.04626 39906 ft 435 kts 239°
2026-05-05 04:45 41.12699 47.97161 39923 ft 440 kts 255°
2026-05-05 04:45 41.12394 47.88984 39921 ft 452 kts 271°
2026-05-05 04:46 41.13519 47.80723 39915 ft 456 kts 276°
2026-05-05 04:46 41.14872 47.72480 39915 ft 457 kts 276°
2026-05-05 04:47 41.16209 47.64232 39914 ft 457 kts 276°
2026-05-05 04:47 41.17491 47.56026 39924 ft 457 kts 276°
2026-05-05 04:48 41.18757 47.47779 39924 ft 457 kts 276°
2026-05-05 04:48 41.20020 47.39497 39938 ft 457 kts 275°
2026-05-05 04:49 41.21280 47.31225 39941 ft 457 kts 275°
2026-05-05 04:49 41.22535 47.22953 39956 ft 457 kts 275°
2026-05-05 04:50 41.23783 47.14670 39961 ft 457 kts 275°
2026-05-05 04:50 41.25021 47.06433 39966 ft 458 kts 275°
2026-05-05 04:51 41.26259 46.98134 39976 ft 458 kts 275°
2026-05-05 04:51 41.27491 46.89826 39979 ft 459 kts 275°
2026-05-05 04:52 41.28720 46.81497 39979 ft 459 kts 275°
2026-05-05 04:52 41.29945 46.73152 39982 ft 460 kts 275°
2026-05-05 04:53 41.31130 46.64778 39983 ft 461 kts 274°
2026-05-05 04:53 41.32295 46.56398 39979 ft 461 kts 274°
2026-05-05 04:54 41.33451 46.48051 39977 ft 462 kts 274°
2026-05-05 04:54 41.34614 46.39632 39974 ft 463 kts 275°
2026-05-05 04:55 41.35776 46.31192 39963 ft 464 kts 275°
2026-05-05 04:55 41.36933 46.22744 39959 ft 464 kts 275°
2026-05-05 04:56 41.38084 46.14286 39955 ft 465 kts 275°
2026-05-05 04:56 41.39230 46.05821 39956 ft 465 kts 275°
2026-05-05 04:57 41.40363 45.97394 39952 ft 465 kts 275°
2026-05-05 04:57 41.41499 45.88899 39946 ft 466 kts 275°
2026-05-05 04:58 41.42630 45.80406 39939 ft 466 kts 275°
2026-05-05 04:58 41.43755 45.71896 39937 ft 466 kts 275°
2026-05-05 04:59 41.44874 45.63376 39931 ft 467 kts 275°
2026-05-05 04:59 41.45988 45.54847 39932 ft 467 kts 275°
2026-05-05 05:00 41.47096 45.46317 39930 ft 467 kts 275°
2026-05-05 05:00 41.48191 45.37833 39920 ft 468 kts 275°
2026-05-05 05:01 41.49126 45.29262 39927 ft 466 kts 271°
2026-05-05 05:01 41.49754 45.20661 39930 ft 466 kts 270°
2026-05-05 05:02 41.50376 45.12061 39933 ft 467 kts 271°
2026-05-05 05:02 41.51045 45.03438 39936 ft 467 kts 271°
2026-05-05 05:03 41.51734 44.94815 39937 ft 468 kts 271°
2026-05-05 05:03 41.52419 44.86196 39940 ft 468 kts 271°
2026-05-05 05:04 41.53093 44.77600 39940 ft 469 kts 271°
2026-05-05 05:04 41.53764 44.68932 39942 ft 469 kts 271°
2026-05-05 05:05 41.54430 44.60267 39940 ft 469 kts 271°
2026-05-05 05:05 41.55088 44.51593 39931 ft 469 kts 271°
2026-05-05 05:06 41.55739 44.42922 39934 ft 470 kts 271°
2026-05-05 05:06 41.56380 44.34299 39925 ft 470 kts 271°
2026-05-05 05:07 41.56976 44.25617 39930 ft 468 kts 268°
2026-05-05 05:07 41.56541 44.17025 39920 ft 462 kts 259°
2026-05-05 05:08 41.55644 44.08524 39924 ft 462 kts 258°
2026-05-05 05:08 41.54677 44.00083 39918 ft 463 kts 258°
2026-05-05 05:09 41.53710 43.91599 39934 ft 463 kts 258°
2026-05-05 05:09 41.52749 43.83097 39936 ft 463 kts 258°
2026-05-05 05:10 41.51788 43.74598 39933 ft 463 kts 258°
2026-05-05 05:10 41.50820 43.66097 39940 ft 464 kts 258°
2026-05-05 05:11 41.49845 43.57588 39938 ft 464 kts 258°
2026-05-05 05:11 41.48862 43.49086 39934 ft 464 kts 257°
2026-05-05 05:12 41.47878 43.40629 39934 ft 464 kts 257°
2026-05-05 05:12 41.46883 43.32123 39936 ft 465 kts 257°
2026-05-05 05:13 41.45879 43.23611 39935 ft 465 kts 257°
2026-05-05 05:13 41.44866 43.15088 39933 ft 466 kts 257°
2026-05-05 05:14 41.43848 43.06552 39929 ft 466 kts 257°
2026-05-05 05:14 41.42822 42.98006 39930 ft 467 kts 257°
2026-05-05 05:15 41.41791 42.89459 39938 ft 468 kts 257°
2026-05-05 05:15 41.40747 42.80895 39933 ft 468 kts 257°
2026-05-05 05:16 41.39704 42.72392 39938 ft 468 kts 257°
2026-05-05 05:16 41.38649 42.63832 39935 ft 469 kts 257°
2026-05-05 05:17 41.37584 42.55258 39937 ft 469 kts 257°
2026-05-05 05:17 41.36514 42.46686 39929 ft 470 kts 257°
2026-05-05 05:18 41.35437 42.38103 39926 ft 470 kts 257°
2026-05-05 05:18 41.34353 42.29531 39931 ft 470 kts 257°
2026-05-05 05:19 41.33259 42.20939 39927 ft 471 kts 257°
2026-05-05 05:19 41.32169 42.12412 39930 ft 471 kts 257°
2026-05-05 05:20 41.31063 42.03821 39925 ft 471 kts 257°
2026-05-05 05:20 41.29952 41.95235 39925 ft 471 kts 257°
2026-05-05 05:21 41.28828 41.86633 39923 ft 472 kts 257°
2026-05-05 05:21 41.27740 41.78443 39921 ft 472 kts 257°
2026-05-05 05:22 41.26558 41.69588 39926 ft 472 kts 257°
2026-05-05 05:22 41.25406 41.60992 39925 ft 472 kts 257°
2026-05-05 05:23 41.24249 41.52396 39925 ft 473 kts 257°
2026-05-05 05:23 41.23093 41.43849 39927 ft 473 kts 257°
2026-05-05 05:24 41.21922 41.35243 39936 ft 474 kts 257°
2026-05-05 05:24 41.20740 41.26623 39941 ft 475 kts 257°
2026-05-05 05:25 41.19550 41.17996 39949 ft 475 kts 257°
2026-05-05 05:25 41.18354 41.09367 39956 ft 475 kts 257°
2026-05-05 05:26 41.17152 41.00740 39965 ft 475 kts 257°
2026-05-05 05:26 41.15951 40.92175 39967 ft 476 kts 257°
2026-05-05 05:27 41.14726 40.83492 39967 ft 476 kts 257°
2026-05-05 05:27 41.12897 40.70599 39967 ft 476 kts 257°
2026-05-05 05:28 41.11660 40.61957 39960 ft 477 kts 257°
2026-05-05 05:28 41.10420 40.53332 39957 ft 477 kts 256°
2026-05-05 05:29 41.09169 40.44684 39953 ft 477 kts 256°
2026-05-05 05:29 41.07911 40.36028 39946 ft 478 kts 256°
2026-05-05 05:30 41.06648 40.27391 39948 ft 478 kts 256°
2026-05-05 05:30 41.05375 40.18734 39952 ft 478 kts 256°
2026-05-05 05:31 41.04097 40.10084 39956 ft 479 kts 256°
2026-05-05 05:31 41.02819 40.01488 39962 ft 479 kts 256°
2026-05-05 05:32 41.01528 39.92842 39966 ft 479 kts 256°
2026-05-05 05:32 41.00512 39.84115 39967 ft 482 kts 265°
2026-05-05 05:33 41.01301 39.75293 39969 ft 488 kts 284°
2026-05-05 05:33 41.03882 39.66939 39969 ft 492 kts 292°
2026-05-05 05:34 41.06819 39.58752 39968 ft 493 kts 293°
2026-05-05 05:34 41.09777 39.50553 39968 ft 493 kts 293°
2026-05-05 05:35 41.12694 39.42324 39957 ft 493 kts 292°
2026-05-05 05:35 41.15567 39.34127 39960 ft 493 kts 292°
2026-05-05 05:36 41.18448 39.25873 39961 ft 493 kts 292°
2026-05-05 05:36 41.21327 39.17602 39965 ft 493 kts 292°
2026-05-05 05:37 41.24144 39.09308 39963 ft 493 kts 291°
2026-05-05 05:37 41.26861 39.00950 39959 ft 493 kts 291°
2026-05-05 05:38 41.29577 38.92586 39964 ft 493 kts 291°
2026-05-05 05:38 41.32287 38.84273 39962 ft 493 kts 291°
2026-05-05 05:39 41.35021 38.75912 39965 ft 493 kts 291°
2026-05-05 05:39 41.37799 38.67560 39969 ft 493 kts 292°
2026-05-05 05:40 41.40108 38.60632 39965 ft 493 kts 292°
2026-05-05 05:40 41.42883 38.52266 39964 ft 493 kts 292°
2026-05-05 05:41 41.45646 38.43894 39966 ft 493 kts 292°
2026-05-05 05:41 41.48397 38.35524 39971 ft 493 kts 292°
2026-05-05 05:42 41.51143 38.27146 39969 ft 493 kts 292°
2026-05-05 05:42 41.53880 38.18771 39974 ft 493 kts 292°
2026-05-05 05:43 41.56615 38.10377 39976 ft 493 kts 292°
2026-05-05 05:43 41.59343 38.01978 39976 ft 493 kts 292°
2026-05-05 05:44 41.62049 37.93621 39979 ft 493 kts 292°
2026-05-05 05:44 41.64772 37.85186 39978 ft 494 kts 292°
2026-05-05 05:45 41.67491 37.76735 39980 ft 495 kts 292°
2026-05-05 05:45 41.70042 37.68207 39979 ft 494 kts 285°
2026-05-05 05:46 41.71060 37.59191 39983 ft 490 kts 272°
2026-05-05 05:46 41.71347 37.50050 39983 ft 491 kts 270°
2026-05-05 05:47 41.71518 37.40975 39984 ft 491 kts 270°
2026-05-05 05:47 41.71696 37.31843 39984 ft 491 kts 270°
2026-05-05 05:48 41.71891 37.22698 39986 ft 491 kts 270°
2026-05-05 05:48 41.72088 37.13559 39985 ft 491 kts 270°
2026-05-05 05:49 41.72278 37.04421 39980 ft 491 kts 270°
2026-05-05 05:49 41.72459 36.95277 39980 ft 491 kts 270°
2026-05-05 05:50 41.72633 36.86137 39980 ft 491 kts 270°
2026-05-05 05:50 41.72798 36.77058 39982 ft 491 kts 270°
2026-05-05 05:51 41.72957 36.67911 39979 ft 491 kts 270°
2026-05-05 05:51 41.73108 36.58768 39983 ft 491 kts 270°
2026-05-05 05:52 41.73253 36.49640 39979 ft 491 kts 270°
2026-05-05 05:52 41.73390 36.40497 39985 ft 491 kts 270°
2026-05-05 05:53 41.73520 36.31359 39985 ft 491 kts 270°
2026-05-05 05:53 41.73643 36.22223 39985 ft 491 kts 270°
2026-05-05 05:54 41.73757 36.13151 39980 ft 491 kts 270°
2026-05-05 05:54 41.73865 36.04012 39991 ft 491 kts 270°
2026-05-05 05:55 41.73966 35.94888 39988 ft 491 kts 270°
2026-05-05 05:55 41.74060 35.85743 39983 ft 491 kts 270°
2026-05-05 05:56 41.74147 35.76604 39988 ft 491 kts 270°
2026-05-05 05:56 41.74226 35.67454 39989 ft 491 kts 270°
2026-05-05 05:57 41.74299 35.58292 39980 ft 492 kts 270°
2026-05-05 05:57 41.74363 35.49187 39985 ft 492 kts 270°
2026-05-05 05:58 41.74421 35.40018 39987 ft 492 kts 270°
2026-05-05 05:58 41.74471 35.30863 39982 ft 492 kts 270°
2026-05-05 05:59 41.74515 35.21687 39988 ft 493 kts 270°
2026-05-05 05:59 41.74551 35.12514 39981 ft 493 kts 270°
2026-05-05 06:00 41.74580 35.03324 39980 ft 493 kts 270°
2026-05-05 06:00 41.74599 34.94196 39993 ft 493 kts 270°
2026-05-05 06:01 41.74613 34.85008 39986 ft 493 kts 270°
2026-05-05 06:01 41.74621 34.75814 39982 ft 493 kts 270°
2026-05-05 06:02 41.74621 34.66639 39982 ft 492 kts 270°
2026-05-05 06:02 41.75212 34.57538 39988 ft 492 kts 284°
2026-05-05 06:03 41.77068 34.48726 39991 ft 492 kts 287°
2026-05-05 06:03 41.79121 34.40049 39991 ft 492 kts 288°
2026-05-05 06:04 41.81201 34.31311 39988 ft 492 kts 288°
2026-05-05 06:04 41.83250 34.22562 39989 ft 492 kts 288°
2026-05-05 06:05 41.85277 34.13802 39990 ft 491 kts 288°
2026-05-05 06:05 41.87298 34.05052 39986 ft 490 kts 288°
2026-05-05 06:06 41.89301 33.96309 39994 ft 490 kts 288°
2026-05-05 06:06 41.91279 33.87625 39997 ft 489 kts 288°
2026-05-05 06:07 41.93259 33.78891 39991 ft 489 kts 288°
2026-05-05 06:07 41.95243 33.70163 39994 ft 488 kts 288°
2026-05-05 06:08 41.97063 33.61369 39993 ft 489 kts 285°
2026-05-05 06:08 41.98705 33.52501 39991 ft 489 kts 285°
2026-05-05 06:09 42.00355 33.43641 39995 ft 488 kts 285°
2026-05-05 06:09 42.02031 33.34791 39994 ft 488 kts 285°
2026-05-05 06:10 42.03704 33.25998 39994 ft 488 kts 285°
2026-05-05 06:10 42.05383 33.17137 39996 ft 489 kts 285°
2026-05-05 06:11 42.07056 33.08261 39995 ft 489 kts 285°
2026-05-05 06:11 42.08789 32.99428 39994 ft 488 kts 287°
2026-05-05 06:12 42.10625 32.90620 39997 ft 488 kts 287°
2026-05-05 06:12 42.12434 32.81873 39995 ft 488 kts 287°
2026-05-05 06:13 42.14231 32.73051 39996 ft 488 kts 287°
2026-05-05 06:13 42.16014 32.64213 39995 ft 488 kts 287°
2026-05-05 06:14 42.17791 32.55375 39996 ft 488 kts 286°
2026-05-05 06:14 42.19555 32.46528 39995 ft 488 kts 286°
2026-05-05 06:15 42.21311 32.37676 39996 ft 488 kts 286°
2026-05-05 06:15 42.23050 32.28881 39994 ft 488 kts 286°
2026-05-05 06:16 42.24796 32.20024 39996 ft 488 kts 286°
2026-05-05 06:16 42.26534 32.11167 39994 ft 488 kts 286°
2026-05-05 06:17 42.28266 32.02301 39996 ft 488 kts 286°
2026-05-05 06:17 42.29990 31.93433 39994 ft 488 kts 286°
2026-05-05 06:18 42.31710 31.84564 39997 ft 488 kts 286°
2026-05-05 06:18 42.33424 31.75690 39995 ft 488 kts 286°
2026-05-05 06:19 42.35130 31.66814 39996 ft 488 kts 285°
2026-05-05 06:19 42.36816 31.58006 39995 ft 487 kts 285°
2026-05-05 06:20 42.38507 31.49131 40006 ft 487 kts 285°
2026-05-05 06:20 42.40186 31.40274 40010 ft 486 kts 285°
2026-05-05 06:21 42.41860 31.31407 40010 ft 486 kts 285°
2026-05-05 06:21 42.43525 31.22548 40013 ft 485 kts 285°
2026-05-05 06:22 42.45181 31.13693 40006 ft 485 kts 285°
2026-05-05 06:22 42.46829 31.04840 40016 ft 484 kts 285°
2026-05-05 06:23 42.48464 30.95993 40015 ft 484 kts 285°
2026-05-05 06:23 42.50078 30.87227 40019 ft 483 kts 285°
2026-05-05 06:24 42.51694 30.78403 40022 ft 482 kts 285°
2026-05-05 06:24 42.53301 30.69586 40028 ft 481 kts 285°
2026-05-05 06:25 42.54890 30.60769 40030 ft 481 kts 285°
2026-05-05 06:25 42.56484 30.51958 40036 ft 480 kts 285°
2026-05-05 06:26 42.58073 30.43165 40038 ft 480 kts 285°
2026-05-05 06:26 42.59632 30.34419 40038 ft 480 kts 285°
2026-05-05 06:27 42.63856 30.22345 40048 ft 471 kts 311°
2026-05-05 06:28 42.68083 30.15547 40045 ft 471 kts 313°
2026-05-05 06:28 42.72461 30.08928 40053 ft 471 kts 313°
2026-05-05 06:29 42.76855 30.02310 40050 ft 470 kts 313°
2026-05-05 06:29 42.81207 29.95666 40055 ft 470 kts 313°
2026-05-05 06:30 42.85523 29.89047 40052 ft 470 kts 313°
2026-05-05 06:30 42.89850 29.82359 40057 ft 470 kts 313°
2026-05-05 06:31 42.94170 29.75678 40056 ft 470 kts 313°
2026-05-05 06:31 42.98486 29.68982 40060 ft 469 kts 313°
2026-05-05 06:32 43.02797 29.62285 40066 ft 469 kts 313°
2026-05-05 06:32 43.07102 29.55584 40070 ft 469 kts 312°
2026-05-05 06:33 43.11400 29.48880 40067 ft 469 kts 312°
2026-05-05 06:33 43.15697 29.42160 40070 ft 469 kts 312°
2026-05-05 06:34 43.19956 29.35485 40068 ft 468 kts 312°
2026-05-05 06:34 43.24246 29.28747 40071 ft 468 kts 312°
2026-05-05 06:35 43.28521 29.22014 40075 ft 468 kts 312°
2026-05-05 06:35 43.32789 29.15278 40079 ft 467 kts 312°
2026-05-05 06:36 43.37047 29.08543 40078 ft 467 kts 312°
2026-05-05 06:36 43.41300 29.01798 40077 ft 467 kts 312°
2026-05-05 06:37 43.45548 28.95047 40078 ft 466 kts 312°
2026-05-05 06:37 43.49753 28.88347 40077 ft 466 kts 312°
2026-05-05 06:38 43.53988 28.81586 40077 ft 466 kts 312°
2026-05-05 06:38 43.58216 28.74819 40077 ft 466 kts 312°
2026-05-05 06:39 43.62435 28.68049 40075 ft 465 kts 311°
2026-05-05 06:39 43.66654 28.61266 40071 ft 465 kts 311°
2026-05-05 06:40 43.70864 28.54480 40069 ft 465 kts 311°
2026-05-05 06:40 43.74545 28.47192 40070 ft 467 kts 300°
2026-05-05 06:41 43.77531 28.39211 40064 ft 468 kts 298°
2026-05-05 06:41 43.80399 28.31119 40063 ft 468 kts 297°
2026-05-05 06:42 43.83254 28.23017 40068 ft 468 kts 297°
2026-05-05 06:42 43.86123 28.14908 40067 ft 468 kts 297°
2026-05-05 06:43 43.88991 28.06804 40068 ft 468 kts 297°
2026-05-05 06:43 43.91371 28.00065 40068 ft 468 kts 297°
2026-05-05 06:44 43.94694 27.90622 40070 ft 469 kts 297°
2026-05-05 06:44 43.97552 27.82476 40066 ft 469 kts 297°
2026-05-05 06:45 43.99921 27.75707 40068 ft 469 kts 297°
2026-05-05 06:45 44.02768 27.67545 40072 ft 469 kts 297°
2026-05-05 06:46 44.05605 27.59387 40072 ft 469 kts 297°
2026-05-05 06:46 44.08441 27.51209 40077 ft 469 kts 297°
2026-05-05 06:47 44.11271 27.43024 40077 ft 469 kts 297°
2026-05-05 06:47 44.14090 27.34847 40072 ft 469 kts 297°
2026-05-05 06:48 44.16889 27.26702 40074 ft 469 kts 297°
2026-05-05 06:48 44.19697 27.18505 40075 ft 469 kts 297°
2026-05-05 06:49 44.22499 27.10304 40074 ft 469 kts 297°
2026-05-05 06:49 44.25297 27.02089 40076 ft 469 kts 297°
2026-05-05 06:50 44.28089 26.93864 40077 ft 469 kts 297°
2026-05-05 06:50 44.30872 26.85639 40076 ft 469 kts 296°
2026-05-05 06:51 44.33650 26.77407 40078 ft 469 kts 296°
2026-05-05 06:51 44.36426 26.69156 40076 ft 469 kts 296°
2026-05-05 06:52 44.39170 26.60971 40080 ft 469 kts 296°
2026-05-05 06:52 44.41931 26.52713 40075 ft 468 kts 296°
2026-05-05 06:53 44.44687 26.44442 40077 ft 468 kts 296°
2026-05-05 06:53 44.47429 26.36191 40074 ft 468 kts 296°
2026-05-05 06:54 44.50175 26.27901 40077 ft 468 kts 296°
2026-05-05 06:54 44.52890 26.19679 40075 ft 468 kts 296°
2026-05-05 06:55 44.55614 26.11403 40076 ft 468 kts 296°
2026-05-05 06:55 44.58333 26.03111 40076 ft 467 kts 296°
2026-05-05 06:56 44.61042 25.94830 40076 ft 467 kts 296°
2026-05-05 06:56 44.63745 25.86538 40075 ft 467 kts 296°
2026-05-05 06:57 44.66445 25.78233 40076 ft 467 kts 296°
2026-05-05 06:57 44.69137 25.69927 40077 ft 467 kts 296°
2026-05-05 06:58 44.71818 25.61624 40077 ft 467 kts 296°
2026-05-05 06:58 44.74478 25.53365 40071 ft 467 kts 296°
2026-05-05 06:59 44.77150 25.45040 40074 ft 467 kts 296°
2026-05-05 06:59 44.79815 25.36709 40067 ft 467 kts 296°
2026-05-05 07:00 44.82472 25.28378 40070 ft 466 kts 296°
2026-05-05 07:00 44.85125 25.20030 40075 ft 466 kts 296°
2026-05-05 07:01 44.87773 25.11675 40067 ft 466 kts 296°
2026-05-05 07:01 44.90391 25.03388 40066 ft 466 kts 295°
2026-05-05 07:02 44.93025 24.95023 40057 ft 466 kts 295°
2026-05-05 07:02 44.95646 24.86670 40061 ft 465 kts 295°
2026-05-05 07:03 44.98256 24.78325 40069 ft 465 kts 295°
2026-05-05 07:03 45.00861 24.69968 40062 ft 464 kts 295°
2026-05-05 07:04 45.03454 24.61625 40064 ft 464 kts 295°
2026-05-05 07:04 45.06042 24.53275 40068 ft 463 kts 295°
2026-05-05 07:05 45.08601 24.44987 40064 ft 463 kts 295°
2026-05-05 07:05 45.11169 24.36644 40063 ft 463 kts 295°
2026-05-05 07:06 45.13733 24.28282 40071 ft 462 kts 295°
2026-05-05 07:06 45.16287 24.19929 40077 ft 462 kts 295°
2026-05-05 07:07 45.18828 24.11593 40074 ft 462 kts 295°
2026-05-05 07:07 45.21379 24.03193 40077 ft 462 kts 295°
2026-05-05 07:08 45.23912 23.94827 40080 ft 462 kts 295°
2026-05-05 07:08 45.26444 23.86437 40083 ft 462 kts 295°
2026-05-05 07:09 45.28970 23.78037 40083 ft 462 kts 295°
2026-05-05 07:09 45.31489 23.69635 40083 ft 462 kts 295°
2026-05-05 07:10 45.33995 23.61292 40088 ft 462 kts 295°
2026-05-05 07:10 45.36522 23.52881 40082 ft 462 kts 295°
2026-05-05 07:11 45.39039 23.44476 40093 ft 462 kts 295°
2026-05-05 07:11 45.41547 23.36065 40084 ft 462 kts 295°
2026-05-05 07:12 45.44050 23.27639 40084 ft 462 kts 294°
2026-05-05 07:12 45.46543 23.19219 40081 ft 462 kts 294°
2026-05-05 07:13 45.49013 23.10847 40077 ft 461 kts 294°
2026-05-05 07:13 45.51497 23.02398 40080 ft 461 kts 294°
2026-05-05 07:14 45.53971 22.93956 40080 ft 461 kts 294°
2026-05-05 07:14 45.56436 22.85519 40073 ft 461 kts 294°
2026-05-05 07:15 45.58896 22.77069 40067 ft 461 kts 294°
2026-05-05 07:15 45.61350 22.68611 40066 ft 461 kts 294°
2026-05-05 07:16 45.63779 22.60212 40068 ft 461 kts 294°
2026-05-05 07:16 45.66216 22.51753 40067 ft 460 kts 294°
2026-05-05 07:17 45.68648 22.43281 40067 ft 460 kts 294°
2026-05-05 07:17 45.71071 22.34810 40063 ft 460 kts 294°
2026-05-05 07:18 45.73486 22.26338 40060 ft 460 kts 293°
2026-05-05 07:18 45.75894 22.17867 40061 ft 460 kts 293°
2026-05-05 07:19 45.78280 22.09444 40063 ft 459 kts 293°
2026-05-05 07:19 45.80674 22.00964 40067 ft 459 kts 293°
2026-05-05 07:20 45.83061 21.92476 40068 ft 459 kts 293°
2026-05-05 07:20 45.85439 21.83994 40065 ft 458 kts 293°
2026-05-05 07:21 45.87805 21.75519 40069 ft 458 kts 293°
2026-05-05 07:21 45.90171 21.67014 40069 ft 457 kts 293°
2026-05-05 07:22 45.92507 21.58592 40070 ft 457 kts 292°
2026-05-05 07:22 45.94851 21.50111 40076 ft 456 kts 292°
2026-05-05 07:23 45.97188 21.41624 40072 ft 456 kts 292°
2026-05-05 07:23 45.99518 21.33137 40070 ft 456 kts 292°
2026-05-05 07:24 46.01826 21.24697 40073 ft 456 kts 292°
2026-05-05 07:24 46.04139 21.16209 40071 ft 456 kts 292°
2026-05-05 07:25 46.06444 21.07718 40071 ft 455 kts 292°
2026-05-05 07:25 46.08743 20.99219 40070 ft 455 kts 292°
2026-05-05 07:26 46.11035 20.90719 40064 ft 455 kts 292°
2026-05-05 07:26 46.13321 20.82208 40061 ft 455 kts 292°
2026-05-05 07:27 46.15597 20.73705 40060 ft 455 kts 291°
2026-05-05 07:27 46.17762 20.65140 40056 ft 455 kts 288°
2026-05-05 07:28 46.19507 20.56439 40056 ft 455 kts 286°
2026-05-05 07:28 46.21212 20.47653 40051 ft 454 kts 287°
2026-05-05 07:29 46.22971 20.38902 40063 ft 454 kts 287°
2026-05-05 07:29 46.24762 20.30151 40055 ft 453 kts 287°
2026-05-05 07:30 46.26550 20.21411 40042 ft 453 kts 287°
2026-05-05 07:30 46.29217 20.08295 40050 ft 453 kts 287°
2026-05-05 07:31 46.30970 19.99611 40051 ft 453 kts 287°
2026-05-05 07:31 46.32725 19.90872 40047 ft 452 kts 287°
2026-05-05 07:32 46.34474 19.82132 40046 ft 452 kts 287°
2026-05-05 07:32 46.36216 19.73383 40033 ft 452 kts 286°
2026-05-05 07:33 46.37952 19.64629 40040 ft 452 kts 286°
2026-05-05 07:33 46.39681 19.55871 40040 ft 452 kts 286°
2026-05-05 07:34 46.41403 19.47111 40036 ft 452 kts 286°
2026-05-05 07:34 46.43119 19.38338 40034 ft 452 kts 286°
2026-05-05 07:35 46.44814 19.29636 40026 ft 452 kts 286°
2026-05-05 07:35 46.46514 19.20867 40036 ft 452 kts 286°
2026-05-05 07:36 46.48209 19.12081 40024 ft 452 kts 286°
2026-05-05 07:36 46.49897 19.03293 40018 ft 452 kts 285°
2026-05-05 07:37 46.51578 18.94504 40030 ft 452 kts 285°
2026-05-05 07:37 46.53253 18.85705 40017 ft 452 kts 285°
2026-05-05 07:38 46.54921 18.76899 40016 ft 452 kts 285°
2026-05-05 07:38 46.56571 18.68149 40012 ft 452 kts 285°
2026-05-05 07:39 46.58227 18.59324 40005 ft 452 kts 285°
2026-05-05 07:39 46.59872 18.50518 40024 ft 452 kts 285°
2026-05-05 07:40 46.61513 18.41690 40001 ft 452 kts 285°
2026-05-05 07:40 46.63148 18.32852 40004 ft 452 kts 285°
2026-05-05 07:41 46.64776 18.24011 40015 ft 452 kts 284°
2026-05-05 07:41 46.66386 18.15233 40002 ft 452 kts 284°
2026-05-05 07:42 46.68000 18.06383 40003 ft 453 kts 284°
2026-05-05 07:42 46.69610 17.97512 40006 ft 453 kts 284°
2026-05-05 07:43 46.71211 17.88652 39997 ft 453 kts 284°
2026-05-05 07:43 46.72806 17.79779 40002 ft 452 kts 284°
2026-05-05 07:44 46.74395 17.70899 39989 ft 452 kts 284°
2026-05-05 07:44 46.75967 17.62071 39986 ft 452 kts 284°
2026-05-05 07:45 46.77540 17.53187 39981 ft 453 kts 284°
2026-05-05 07:45 46.79108 17.44287 39975 ft 453 kts 283°
2026-05-05 07:46 46.80669 17.35381 39966 ft 453 kts 283°
2026-05-05 07:46 46.82224 17.26472 39978 ft 453 kts 283°
2026-05-05 07:47 46.83772 17.17557 39968 ft 452 kts 283°
2026-05-05 07:47 46.85312 17.08648 39966 ft 452 kts 283°
2026-05-05 07:48 46.86831 16.99810 39970 ft 452 kts 283°
2026-05-05 07:48 46.88354 16.90905 39961 ft 451 kts 283°
2026-05-05 07:49 46.89870 16.81992 39961 ft 452 kts 283°
2026-05-05 07:49 46.91379 16.73074 39953 ft 452 kts 283°
2026-05-05 07:50 46.92885 16.64129 39955 ft 453 kts 283°
2026-05-05 07:50 46.94133 16.56684 39951 ft 453 kts 283°
2026-05-05 07:51 46.95628 16.47727 39951 ft 453 kts 283°
2026-05-05 07:51 46.97357 16.37299 39947 ft 453 kts 282°
2026-05-05 07:52 46.98598 16.29777 39944 ft 453 kts 282°
2026-05-05 07:52 47.00071 16.20798 39945 ft 453 kts 282°
2026-05-05 07:53 47.01421 16.11856 39940 ft 453 kts 281°
2026-05-05 07:53 47.02709 16.02815 39943 ft 453 kts 281°
2026-05-05 07:54 47.04002 15.93785 39941 ft 453 kts 281°
2026-05-05 07:54 47.05303 15.84758 39936 ft 453 kts 281°
2026-05-05 07:55 47.06603 15.75726 39934 ft 452 kts 281°
2026-05-05 07:55 47.07892 15.66721 39939 ft 452 kts 280°
2026-05-05 07:56 47.09179 15.57661 39935 ft 452 kts 280°
2026-05-05 07:56 47.10457 15.48621 39937 ft 452 kts 280°
2026-05-05 07:57 47.11717 15.39647 39939 ft 452 kts 280°
2026-05-05 07:57 47.12978 15.30618 39935 ft 452 kts 280°
2026-05-05 07:58 47.14233 15.21568 39941 ft 452 kts 280°
2026-05-05 07:58 47.15482 15.12510 39940 ft 452 kts 280°
2026-05-05 07:59 47.16720 15.03473 39940 ft 452 kts 279°
2026-05-05 07:59 47.17954 14.94407 39944 ft 451 kts 279°
2026-05-05 08:00 47.19171 14.85428 39941 ft 451 kts 279°
2026-05-05 08:00 47.20385 14.76389 39939 ft 451 kts 279°
2026-05-05 08:01 47.21594 14.67331 39941 ft 451 kts 279°
2026-05-05 08:01 47.22797 14.58278 39939 ft 451 kts 279°
2026-05-05 08:02 47.23984 14.49277 39938 ft 451 kts 279°
2026-05-05 08:02 47.25176 14.40195 39943 ft 451 kts 279°
2026-05-05 08:03 47.26356 14.31123 39945 ft 452 kts 279°
2026-05-05 08:03 47.27533 14.22022 39943 ft 452 kts 279°
2026-05-05 08:04 47.28701 14.12936 39930 ft 452 kts 279°
2026-05-05 08:04 47.29864 14.03819 39934 ft 452 kts 278°
2026-05-05 08:05 47.31015 13.94725 39927 ft 452 kts 278°
2026-05-05 08:05 47.32166 13.85607 39920 ft 452 kts 278°
2026-05-05 08:06 47.33301 13.76551 39919 ft 452 kts 278°
2026-05-05 08:06 47.34441 13.67386 39920 ft 452 kts 278°
2026-05-05 08:07 47.35561 13.58314 39908 ft 452 kts 278°
2026-05-05 08:07 47.36680 13.49188 39909 ft 452 kts 278°
2026-05-05 08:08 47.37791 13.40054 39906 ft 452 kts 278°
2026-05-05 08:08 47.38895 13.30923 39903 ft 452 kts 278°
2026-05-05 08:09 47.39991 13.21801 39895 ft 452 kts 278°
2026-05-05 08:09 47.41073 13.12730 39888 ft 452 kts 278°
2026-05-05 08:10 47.42157 13.03572 39879 ft 452 kts 277°
2026-05-05 08:10 47.43231 12.94428 39885 ft 452 kts 277°
2026-05-05 08:11 47.44298 12.85282 39886 ft 452 kts 277°
2026-05-05 08:11 47.45359 12.76136 39884 ft 452 kts 277°
2026-05-05 08:12 47.46412 12.66984 39879 ft 452 kts 277°
2026-05-05 08:12 47.47459 12.57817 39876 ft 452 kts 277°
2026-05-05 08:13 47.48491 12.48719 39876 ft 452 kts 277°
2026-05-05 08:13 47.49523 12.39551 39885 ft 452 kts 277°
2026-05-05 08:14 47.50537 12.30397 39876 ft 452 kts 277°
2026-05-05 08:14 47.51554 12.21227 39883 ft 452 kts 277°
2026-05-05 08:15 47.52568 12.12046 39871 ft 451 kts 277°
2026-05-05 08:15 47.53566 12.02922 39886 ft 451 kts 276°
2026-05-05 08:16 47.54256 11.93904 39880 ft 431 kts 272°
2026-05-05 08:16 47.54716 11.85165 39871 ft 424 kts 271°
2026-05-05 08:17 47.55103 11.76454 39879 ft 425 kts 271°
2026-05-05 08:17 47.55483 11.67697 39865 ft 426 kts 271°
2026-05-05 08:18 47.55869 11.58944 39873 ft 425 kts 271°
2026-05-05 08:18 47.56250 11.50213 39871 ft 425 kts 271°
2026-05-05 08:19 47.55963 11.41528 39872 ft 421 kts 257°
2026-05-05 08:19 47.53952 11.33552 39878 ft 417 kts 237°
2026-05-05 08:20 47.50132 11.27200 39879 ft 416 kts 218°
2026-05-05 08:20 47.45029 11.23186 39883 ft 419 kts 199°
2026-05-05 08:21 47.39249 11.21882 39885 ft 425 kts 181°
2026-05-05 08:21 47.33433 11.23633 39886 ft 433 kts 161°
2026-05-05 08:22 47.30733 11.25651 39880 ft 438 kts 150°
2026-05-05 08:22 47.28345 11.28377 39879 ft 443 kts 140°
2026-05-05 08:22 47.26308 11.31800 39881 ft 449 kts 128°
2026-05-05 08:22 47.24707 11.35778 39884 ft 454 kts 118°
2026-05-05 08:23 47.23608 11.40150 39879 ft 459 kts 107°
2026-05-05 08:23 47.23092 11.44793 39876 ft 464 kts 94°
2026-05-05 08:23 47.23424 11.49519 39892 ft 468 kts 77°
2026-05-05 08:23 47.24645 11.53971 39895 ft 470 kts 59°
2026-05-05 08:24 47.26649 11.57744 39898 ft 471 kts 43°
2026-05-05 08:24 47.29184 11.60784 39893 ft 471 kts 35°
2026-05-05 08:24 47.34380 11.66750 39884 ft 475 kts 41°
2026-05-05 08:25 47.39002 11.73717 39883 ft 475 kts 49°
2026-05-05 08:25 47.43896 11.80271 39873 ft 485 kts 31°
2026-05-05 08:26 47.46908 11.82559 39866 ft 490 kts 19°
2026-05-05 08:26 47.50192 11.83927 39859 ft 491 kts
2026-05-05 08:26 47.53435 11.84278 39862 ft 487 kts 355°
2026-05-05 08:26 47.56267 11.83808 39864 ft 483 kts 345°
2026-05-05 08:27 47.59456 11.82357 39856 ft 476 kts 333°
2026-05-05 08:27 47.62353 11.80029 39858 ft 470 kts 322°
2026-05-05 08:27 47.64849 11.76962 39859 ft 465 kts 310°
2026-05-05 08:27 47.66882 11.73284 39855 ft 459 kts 300°
2026-05-05 08:28 47.68377 11.69127 39860 ft 454 kts 288°
2026-05-05 08:28 47.69180 11.64650 39863 ft 448 kts 274°
2026-05-05 08:28 47.69658 11.55451 39858 ft 447 kts 269°
2026-05-05 08:29 47.69792 11.46293 39861 ft 448 kts 269°
2026-05-05 08:30 47.70015 11.32397 39650 ft 453 kts 269°
2026-05-05 08:30 47.70112 11.27745 39490 ft 445 kts 269°
2026-05-05 08:30 47.70212 11.23169 38979 ft 444 kts 269°
2026-05-05 08:30 47.70312 11.18587 38372 ft 444 kts 269°
2026-05-05 08:31 47.70409 11.14027 37730 ft 443 kts 269°
2026-05-05 08:31 47.70502 11.09482 37146 ft 440 kts 269°
2026-05-05 08:31 47.70594 11.04926 36551 ft 439 kts 269°
2026-05-05 08:31 47.70683 11.00407 35953 ft 437 kts 268°
2026-05-05 08:32 47.70769 10.95910 35395 ft 435 kts 268°
2026-05-05 08:32 47.70853 10.91442 34941 ft 431 kts 268°
2026-05-05 08:32 47.70936 10.87006 34478 ft 428 kts 268°
2026-05-05 08:32 47.71017 10.82611 34017 ft 424 kts 268°
2026-05-05 08:33 47.71095 10.78247 33515 ft 421 kts 268°
2026-05-05 08:33 47.71170 10.73915 33037 ft 416 kts 268°
2026-05-05 08:33 47.71242 10.69700 32595 ft 412 kts 268°
2026-05-05 08:33 47.71312 10.65474 32124 ft 408 kts 268°
2026-05-05 08:34 47.71379 10.61225 31230 ft 415 kts 268°
2026-05-05 08:34 47.71443 10.56917 30435 ft 420 kts 268°
2026-05-05 08:34 47.71507 10.52582 29816 ft 419 kts 268°
2026-05-05 08:34 47.71572 10.48265 29174 ft 418 kts 268°
2026-05-05 08:35 47.71637 10.43958 28569 ft 415 kts 268°
2026-05-05 08:35 47.71699 10.39691 28005 ft 413 kts 268°
2026-05-05 08:35 47.71759 10.35435 27435 ft 410 kts 268°
2026-05-05 08:35 47.71817 10.31213 26907 ft 408 kts 268°
2026-05-05 08:36 47.71873 10.27015 26380 ft 405 kts 268°
2026-05-05 08:36 47.71928 10.22849 25859 ft 403 kts 268°
2026-05-05 08:36 47.71980 10.18693 25333 ft 401 kts 268°
2026-05-05 08:36 47.72029 10.14632 24833 ft 398 kts 268°
2026-05-05 08:37 47.72077 10.10532 24327 ft 396 kts 268°
2026-05-05 08:37 47.72124 10.06452 23825 ft 394 kts 268°
2026-05-05 08:37 47.72169 10.02377 23317 ft 392 kts 268°
2026-05-05 08:37 47.72212 9.98348 22743 ft 390 kts 268°
2026-05-05 08:38 47.72253 9.94343 22150 ft 387 kts 268°
2026-05-05 08:38 47.72295 9.90353 21602 ft 385 kts 268°
2026-05-05 08:38 47.72334 9.86408 21061 ft 382 kts 268°
2026-05-05 08:38 47.72372 9.82471 20531 ft 380 kts 268°
2026-05-05 08:39 47.72408 9.78552 19998 ft 377 kts 268°
2026-05-05 08:39 47.72441 9.74724 19490 ft 375 kts 268°
2026-05-05 08:39 47.72473 9.70873 18986 ft 373 kts 267°
2026-05-05 08:39 47.72507 9.67020 18489 ft 370 kts 267°
2026-05-05 08:40 47.72537 9.63231 17988 ft 368 kts 267°
2026-05-05 08:40 47.72564 9.59432 17461 ft 365 kts 267°
2026-05-05 08:40 47.72588 9.55691 16961 ft 361 kts 267°
2026-05-05 08:40 47.72579 9.51976 16453 ft 357 kts 265°
2026-05-05 08:41 47.72460 9.48335 15957 ft 353 kts 263°
2026-05-05 08:41 47.72209 9.44727 15448 ft 348 kts 256°
2026-05-05 08:41 47.71703 9.41236 14966 ft 345 kts 258°
2026-05-05 08:41 47.71346 9.37725 14502 ft 342 kts 258°
2026-05-05 08:42 47.70984 9.34257 14030 ft 339 kts 258°
2026-05-05 08:42 47.70607 9.30809 13520 ft 337 kts 257°
2026-05-05 08:42 47.70225 9.27396 12989 ft 334 kts 258°
2026-05-05 08:42 47.69838 9.23996 12474 ft 332 kts 257°
2026-05-05 08:43 47.69449 9.20626 11931 ft 330 kts 258°
2026-05-05 08:43 47.69063 9.17282 11383 ft 327 kts 258°
2026-05-05 08:43 47.68681 9.14007 10863 ft 325 kts 258°
2026-05-05 08:43 47.68293 9.10673 10432 ft 320 kts 258°
2026-05-05 08:44 47.67927 9.07527 10219 ft 308 kts 258°
2026-05-05 08:44 47.67568 9.04451 10042 ft 296 kts 258°
2026-05-05 08:44 47.67222 9.01497 9803 ft 287 kts 257°
2026-05-05 08:44 47.66877 8.98594 9366 ft 285 kts 258°
2026-05-05 08:45 47.66538 8.95708 8929 ft 283 kts 258°
2026-05-05 08:45 47.66199 8.92843 8516 ft 282 kts 258°
2026-05-05 08:45 47.65862 8.90008 8341 ft 273 kts 258°
2026-05-05 08:45 47.65540 8.87290 8214 ft 262 kts 258°
2026-05-05 08:46 47.65230 8.84674 8083 ft 253 kts 258°
2026-05-05 08:46 47.64934 8.82174 7976 ft 243 kts 258°
2026-05-05 08:46 47.64640 8.79719 7755 ft 239 kts 258°
2026-05-05 08:46 47.64347 8.77309 7507 ft 237 kts 258°
2026-05-05 08:47 47.64061 8.74910 7268 ft 236 kts 258°
2026-05-05 08:47 47.63773 8.72523 6995 ft 235 kts 258°
2026-05-05 08:47 47.63489 8.70165 6726 ft 235 kts 258°
2026-05-05 08:47 47.63255 8.67770 6484 ft 235 kts 265°
2026-05-05 08:48 47.63441 8.65362 6199 ft 236 kts 286°
2026-05-05 08:48 47.63988 8.63077 5958 ft 235 kts 290°
2026-05-05 08:48 47.64579 8.60819 5702 ft 234 kts 290°
2026-05-05 08:48 47.65160 8.58575 5458 ft 233 kts 291°
2026-05-05 08:49 47.65742 8.56335 5316 ft 232 kts 291°
2026-05-05 08:49 47.66315 8.54099 5188 ft 232 kts 290°
2026-05-05 08:49 47.66884 8.51861 5059 ft 232 kts 290°
2026-05-05 08:49 47.67450 8.49628 4940 ft 231 kts 291°
2026-05-05 08:50 47.68014 8.47405 4810 ft 231 kts 291°
2026-05-05 08:50 47.68466 8.45120 4681 ft 231 kts 277°
2026-05-05 08:50 47.68244 8.42798 4567 ft 229 kts 244°
2026-05-05 08:50 47.67311 8.40916 4535 ft 227 kts 226°
2026-05-05 08:51 47.66217 8.39225 4519 ft 228 kts 225°
2026-05-05 08:51 47.65120 8.37529 4519 ft 229 kts 225°
2026-05-05 08:51 47.63974 8.35937 4502 ft 228 kts 213°
2026-05-05 08:51 47.62479 8.35352 4397 ft 224 kts 173°
2026-05-05 08:52 47.61023 8.36081 4286 ft 222 kts 147°
2026-05-05 08:52 47.59853 8.37551 4163 ft 221 kts 132°
2026-05-05 08:52 47.58800 8.39160 4045 ft 212 kts 134°
2026-05-05 08:52 47.57749 8.40582 4005 ft 197 kts 137°
2026-05-05 08:53 47.56753 8.41914 3754 ft 192 kts 136°
2026-05-05 08:53 47.55777 8.43257 3475 ft 189 kts 136°
2026-05-05 08:53 47.54837 8.44541 3237 ft 178 kts 137°
2026-05-05 08:53 47.53991 8.45698 3010 ft 169 kts 137°
2026-05-05 08:54 47.53158 8.46837 2806 ft 157 kts 137°
2026-05-05 08:54 47.52638 8.47549 2646 ft 150 kts 137°
2026-05-05 08:54 47.51967 8.48465 2474 ft 140 kts 137°
2026-05-05 08:54 47.51279 8.49406 2292 ft 133 kts 137°
2026-05-05 08:55 47.50374 8.50644 2070 ft 135 kts 138°
2026-05-05 08:55 47.49909 8.51280 1944 ft 135 kts 137°
2026-05-05 08:55 47.48994 8.52533 1695 ft 135 kts 138°
2026-05-05 08:55 47.48531 8.53170 1537 ft 134 kts 138°
2026-05-05 08:56 47.47859 8.54093 1416 ft 129 kts 139°
2026-05-05 08:56 47.47325 8.54810 1415 ft 86 kts 141°
2026-05-05 08:56 47.47013 8.55244 1416 ft 40 kts 137°
2026-05-05 08:56 47.46817 8.55512 1415 ft 37 kts 137°
2026-05-05 08:57 47.46634 8.55668 1413 ft 24 kts 167°
2026-05-05 08:57 47.46467 8.55726 1412 ft 20 kts 167°
2026-05-05 08:57 47.46352 8.55806 1413 ft 19 kts 144°
2026-05-05 08:57 47.46249 8.55946 1409 ft 21 kts 136°
2026-05-05 08:58 47.46114 8.55995 1404 ft 22 kts 185°
2026-05-05 08:58 47.45965 8.55959 1411 ft 21 kts 213°
2026-05-05 08:58 47.45944 8.55802 1403 ft 0 kts 275°
2026-05-05 08:58 47.45944 8.55801 1403 ft 1 kts 275°
2026-05-05 08:59 47.45948 8.55744 1403 ft 8 kts 276°
2026-05-05 08:59 47.45966 8.55723 1407 ft 3 kts 345°
2026-05-05 08:59 47.45992 8.55730 1411 ft 7 kts 10°
2026-05-05 08:59 47.46016 8.55735 1410 ft 0 kts
2026-05-05 09:00 47.46030 8.55736 1410 ft 0 kts